KJ6MC Weather Reports


time (UTC)temp
F
wind
direction
speed
knots
gust
knots
rain 1hr
in
rain 24hr
in
rain mn
in
humidity
%
barometer
mb
20220627204024 95 294 2.6 6.1 0.00 0.00 0.00 29 1015.0
20220627203951 95 256 2.6 6.1 0.00 0.00 0.00 29 1015.0
20220627203849 94 254 2.6 6.1 0.00 0.00 0.00 30 1015.0
20220627203747 94 266 2.6 6.1 0.00 0.00 0.00 29 1015.0
20220627203641 94 178 2.6 6.1 0.00 0.00 0.00 29 1015.1
20220627203543 95 193 1.7 6.1 0.00 0.00 0.00 30 1015.1
20220627203523 95 215 1.7 6.1 0.00 0.00 0.00 30 1015.1
20220627203443 95 193 1.7 6.1 0.00 0.00 0.00 30 1015.1
20220627203343 95 288 1.7 6.1 0.00 0.00 0.00 30 1015.1
20220627203242 95 238 1.7 6.1 0.00 0.00 0.00 30 1015.1
20220627203140 95 201 1.7 6.1 0.00 0.00 0.00 30 1015.1
20220627203040 95 240 1.7 6.1 0.00 0.00 0.00 30 1015.1
20220627203023 95 233 1.7 6.1 0.00 0.00 0.00 29 1015.1
20220627202941 95 217 1.7 6.1 0.00 0.00 0.00 29 1015.1
20220627202840 95 233 0.9 6.1 0.00 0.00 0.00 30 1015.1
20220627202740 95 271 0.9 4.3 0.00 0.00 0.00 30 1015.1
20220627202631 95 276 0.9 5.2 0.00 0.00 0.00 31 1015.1
20220627202527 95 226 1.7 5.2 0.00 0.00 0.00 29 1015.1
20220627202426 95 145 1.7 5.2 0.00 0.00 0.00 29 1015.1
20220627202326 95 124 1.7 5.2 0.00 0.00 0.00 29 1015.1
20220627202226 95 190 1.7 5.2 0.00 0.00 0.00 30 1015.1
20220627202124 94 246 1.7 5.2 0.00 0.00 0.00 30 1015.2
20220627202028 94 236 1.7 5.2 0.00 0.00 0.00 30 1015.1
20220627202022 94 222 1.7 5.2 0.00 0.00 0.00 30 1015.1
20220627201919 94 238 1.7 5.2 0.00 0.00 0.00 31 1015.2
20220627201820 94 281 2.6 6.1 0.00 0.00 0.00 31 1015.2
20220627201721 94 256 2.6 6.1 0.00 0.00 0.00 31 1015.2
20220627201620 94 250 1.7 6.1 0.00 0.00 0.00 30 1015.2
20220627201525 94 162 1.7 6.1 0.00 0.00 0.00 30 1015.2
20220627201520 94 211 1.7 6.1 0.00 0.00 0.00 30 1015.2
20220627201420 94 158 1.7 6.1 0.00 0.00 0.00 31 1015.2
20220627201318 94 124 1.7 6.1 0.00 0.00 0.00 31 1015.2
20220627201218 94 207 1.7 6.1 0.00 0.00 0.00 31 1015.2
20220627201119 94 139 1.7 6.1 0.00 0.00 0.00 31 1015.3
20220627201024 94 243 1.7 6.1 0.00 0.00 0.00 30 1015.3
20220627201018 94 208 1.7 6.1 0.00 0.00 0.00 30 1015.3
20220627200918 94 253 0.9 6.1 0.00 0.00 0.00 30 1015.3
20220627200818 94 191 0.9 3.5 0.00 0.00 0.00 31 1015.3
20220627200717 94 84 0.9 3.5 0.00 0.00 0.00 32 1015.3
20220627200621 93 188 1.7 5.2 0.00 0.00 0.00 32 1015.4
20220627200520 93 264 1.7 5.2 0.00 0.00 0.00 31 1015.4
20220627200418 93 134 1.7 5.2 0.00 0.00 0.00 31 1015.3
20220627200316 92 138 1.7 5.2 0.00 0.00 0.00 32 1015.3
20220627200214 92 254 1.7 5.2 0.00 0.00 0.00 32 1015.3
20220627200114 92 271 2.6 5.2 0.00 0.00 0.00 32 1015.4
20220627200019 92 271 2.6 5.2 0.00 0.00 0.00 32 1015.4
20220627200012 92 267 2.6 5.2 0.00 0.00 0.00 32 1015.4
20220627195907 92 252 2.6 5.2 0.00 0.00 0.00 31 1015.4
20220627195806 91 222 2.6 5.2 0.00 0.00 0.00 31 1015.4
20220627195707 91 131 2.6 5.2 0.00 0.00 0.00 32 1015.5
20220627195605 91 153 1.7 5.2 0.00 0.00 0.00 33 1015.4
20220627195522 91 127 1.7 5.2 0.00 0.00 0.00 33 1015.4
20220627195506 91 126 1.7 5.2 0.00 0.00 0.00 33 1015.5
20220627195400 91 203 1.7 5.2 0.00 0.00 0.00 33 1015.5
20220627195302 92 183 1.7 5.2 0.00 0.00 0.00 32 1015.5
20220627195200 92 222 1.7 5.2 0.00 0.00 0.00 31 1015.5
20220627195100 92 208 0.9 5.2 0.00 0.00 0.00 31 1015.5
20220627195021 92 207 0.9 5.2 0.00 0.00 0.00 30 1015.5
20220627195000 92 183 0.9 5.2 0.00 0.00 0.00 30 1015.5
20220627194856 92 231 0.9 5.2 0.00 0.00 0.00 30 1015.5
20220627194757 92 210 0.9 2.6 0.00 0.00 0.00 32 1015.5
20220627194657 92 213 0.9 2.6 0.00 0.00 0.00 32 1015.5
20220627194556 92 211 0.9 2.6 0.00 0.00 0.00 32 1015.5
20220627194519 92 243 0.9 3.5 0.00 0.00 0.00 32 1015.5
20220627194454 92 243 0.9 3.5 0.00 0.00 0.00 31 1015.5
20220627194354 92 147 0.9 4.3 0.00 0.00 0.00 31 1015.5
20220627194252 92 235 0.9 4.3 0.00 0.00 0.00 31 1015.5
20220627194153 92 231 0.9 5.2 0.00 0.00 0.00 32 1015.5
20220627194050 92 316 0.9 5.2 0.00 0.00 0.00 32 1015.6
20220627194020 92 316 0.9 5.2 0.00 0.00 0.00 32 1015.6
20220627193947 92 315 0.9 5.2 0.00 0.00 0.00 35 1015.6
20220627193849 91 47 0.9 5.2 0.00 0.00 0.00 35 1015.5
20220627193747 91 149 0.9 5.2 0.00 0.00 0.00 35 1015.6
20220627193646 91 229 0.9 5.2 0.00 0.00 0.00 33 1015.6
20220627193545 91 195 0.9 5.2 0.00 0.00 0.00 33 1015.6
20220627193518 91 200 0.9 5.2 0.00 0.00 0.00 33 1015.6
20220627193442 91 226 0.9 5.2 0.00 0.00 0.00 34 1015.6
20220627193338 91 161 0.9 5.2 0.00 0.00 0.00 33 1015.6
20220627193238 91 240 0.9 5.2 0.00 0.00 0.00 33 1015.7
20220627193138 91 201 0.9 4.3 0.00 0.00 0.00 37 1015.6
20220627193038 91 13 0.9 4.3 0.00 0.00 0.00 36 1015.6
20220627193015 90 13 0.9 4.3 0.00 0.00 0.00 36 1015.6
20220627192936 90 108 0.9 4.3 0.00 0.00 0.00 37 1015.6
20220627192839 90 212 0.9 4.3 0.00 0.00 0.00 38 1015.6
20220627192735 89 217 0.9 4.3 0.00 0.00 0.00 38 1015.7
20220627192634 89 113 0.9 4.3 0.00 0.00 0.00 37 1015.6
20220627192533 89 214 0.9 4.3 0.00 0.00 0.00 37 1015.6
20220627192515 89 193 0.9 4.3 0.00 0.00 0.00 37 1015.6
20220627192430 89 238 0.9 3.5 0.00 0.00 0.00 37 1015.7
20220627192328 88 113 1.7 4.3 0.00 0.00 0.00 37 1015.7
20220627192229 88 197 1.7 4.3 0.00 0.00 0.00 39 1015.7
20220627192128 88 250 1.7 5.2 0.00 0.00 0.00 37 1015.7
20220627192015 88 200 1.7 5.2 0.00 0.00 0.00 37 1015.7
20220627191923 88 228 1.7 5.2 0.00 0.00 0.00 38 1015.7
20220627191822 88 291 1.7 5.2 0.00 0.00 0.00 38 1015.7
20220627191722 87 214 1.7 5.2 0.00 0.00 0.00 39 1015.7
20220627191624 87 207 1.7 5.2 0.00 0.00 0.00 39 1015.7
20220627191524 87 141 1.7 5.2 0.00 0.00 0.00 38 1015.7
20220627191514 87 143 1.7 5.2 0.00 0.00 0.00 38 1015.7
20220627191417 88 210 1.7 5.2 0.00 0.00 0.00 37 1015.7
20220627191314 88 214 1.7 5.2 0.00 0.00 0.00 37 1015.8
20220627191214 88 198 1.7 4.3 0.00 0.00 0.00 37 1015.7
20220627191114 88 149 1.7 4.3 0.00 0.00 0.00 37 1015.7
20220627191016 88 260 0.9 4.3 0.00 0.00 0.00 37 1015.8
20220627190913 87 207 0.9 4.3 0.00 0.00 0.00 38 1015.8
20220627190807 87 249 0.9 3.5 0.00 0.00 0.00 40 1015.8
20220627190708 87 133 1.7 3.5 0.00 0.00 0.00 39 1015.8
20220627190606 86 236 0.9 3.5 0.00 0.00 0.00 39 1015.8
20220627190512 86 224 0.9 3.5 0.00 0.00 0.00 38 1015.8
20220627190507 86 158 0.9 3.5 0.00 0.00 0.00 38 1015.8
20220627190406 86 156 0.9 3.5 0.00 0.00 0.00 38 1015.8
20220627190302 86 214 0.9 3.5 0.00 0.00 0.00 38 1015.8
20220627190201 86 232 0.9 6.1 0.00 0.00 0.00 38 1015.8
20220627190101 86 273 1.7 6.1 0.00 0.00 0.00 38 1015.8
20220627190010 85 262 1.7 6.1 0.00 0.00 0.00 39 1015.8
20220627190002 85 257 1.7 6.1 0.00 0.00 0.00 40 1015.8
20220627185859 85 240 1.7 6.1 0.00 0.00 0.00 40 1015.8
20220627185759 85 217 1.7 6.1 0.00 0.00 0.00 39 1015.9
20220627185656 85 235 1.7 6.1 0.00 0.00 0.00 41 1015.9
20220627185556 85 262 2.6 6.1 0.00 0.00 0.00 41 1015.9
20220627185509 85 248 2.6 6.1 0.00 0.00 0.00 41 1015.9
20220627185457 85 283 2.6 6.1 0.00 0.00 0.00 41 1015.9
20220627185354 84 186 2.6 6.1 0.00 0.00 0.00 41 1015.9
20220627185248 84 184 2.6 6.1 0.00 0.00 0.00 41 1015.9
20220627185152 84 158 2.6 6.1 0.00 0.00 0.00 41 1015.9
20220627185048 84 236 2.6 6.1 0.00 0.00 0.00 40 1015.9
20220627185008 84 193 2.6 6.1 0.00 0.00 0.00 40 1015.9
20220627184948 84 203 2.6 6.1 0.00 0.00 0.00 40 1015.9
20220627184848 84 222 2.6 7.0 0.00 0.00 0.00 40 1015.9
20220627184746 84 250 2.6 7.0 0.00 0.00 0.00 40 1015.9
20220627184647 85 150 1.7 7.0 0.00 0.00 0.00 39 1015.9
20220627184546 85 211 1.7 7.0 0.00 0.00 0.00 38 1015.9
20220627184507 85 219 1.7 7.0 0.00 0.00 0.00 40 1015.9
20220627184445 85 243 1.7 7.0 0.00 0.00 0.00 42 1015.9
20220627184342 85 296 2.6 7.0 0.00 0.00 0.00 40 1016.0
20220627184236 85 224 2.6 7.0 0.00 0.00 0.00 40 1015.9
20220627184136 85 203 1.7 7.0 0.00 0.00 0.00 40 1015.9
20220627184037 85 236 1.7 7.0 0.00 0.00 0.00 41 1015.9
20220627184008 85 153 1.7 7.0 0.00 0.00 0.00 40 1015.9
20220627183938 85 260 1.7 7.0 0.00 0.00 0.00 40 1015.9
20220627183835 85 245 1.7 7.0 0.00 0.00 0.00 42 1015.9
20220627183731 84 315 1.7 7.0 0.00 0.00 0.00 42 1015.9
20220627183630 84 161 2.6 7.0 0.00 0.00 0.00 41 1015.9
20220627183528 85 217 1.7 7.0 0.00 0.00 0.00 40 1015.9
20220627183507 85 142 1.7 7.0 0.00 0.00 0.00 40 1015.9
20220627183429 85 162 1.7 7.0 0.00 0.00 0.00 40 1015.9
20220627183328 85 232 0.9 5.2 0.00 0.00 0.00 40 1015.9
20220627183224 85 222 0.9 5.2 0.00 0.00 0.00 41 1015.9
20220627183125 85 232 0.9 5.2 0.00 0.00 0.00 40 1016.0
20220627183024 85 246 0.9 5.2 0.00 0.00 0.00 40 1015.9
20220627183002 85 228 0.9 5.2 0.00 0.00 0.00 41 1015.9
20220627182926 85 231 0.9 5.2 0.00 0.00 0.00 41 1015.9
20220627182823 85 213 0.9 3.5 0.00 0.00 0.00 41 1015.9
20220627182716 85 221 0.9 3.5 0.00 0.00 0.00 41 1015.9
20220627182628 85 242 0.0 2.6 0.00 0.00 0.00 42 1016.0
20220627182516 85 260 0.0 2.6 0.00 0.00 0.00 43 1016.0
20220627182455 85 260 0.0 2.6 0.00 0.00 0.00 43 1016.0
20220627182416 85 260 0.0 2.6 0.00 0.00 0.00 43 1016.0
20220627182316 85 260 0.0 2.6 0.00 0.00 0.00 43 1016.0
20220627182212 85 307 0.0 2.6 0.00 0.00 0.00 43 1016.0
20220627182113 85 311 0.9 2.6 0.00 0.00 0.00 44 1016.0
20220627182017 85 312 0.0 2.6 0.00 0.00 0.00 42 1016.0
20220627181949 84 195 0.0 2.6 0.00 0.00 0.00 43 1016.0
20220627181912 84 240 0.0 2.6 0.00 0.00 0.00 43 1016.0
20220627181810 84 176 0.9 2.6 0.00 0.00 0.00 43 1016.0
20220627181704 84 250 0.9 5.2 0.00 0.00 0.00 44 1016.0
20220627181604 84 250 0.9 5.2 0.00 0.00 0.00 44 1016.1
20220627181505 83 259 0.9 5.2 0.00 0.00 0.00 44 1016.0
20220627181443 83 197 0.9 5.2 0.00 0.00 0.00 45 1016.0
20220627181405 83 245 0.9 5.2 0.00 0.00 0.00 45 1016.0
20220627181304 83 290 0.9 5.2 0.00 0.00 0.00 46 1016.0
20220627181200 83 260 0.9 5.2 0.00 0.00 0.00 46 1015.9
20220627181059 83 264 0.9 5.2 0.00 0.00 0.00 46 1016.0
20220627180937 83 126 1.7 5.2 0.00 0.00 0.00 46 1016.0
20220627180857 83 125 1.7 5.2 0.00 0.00 0.00 46 1016.0
20220627180758 83 198 1.7 5.2 0.00 0.00 0.00 45 1016.0
20220627180655 83 229 0.9 4.3 0.00 0.00 0.00 45 1016.0
20220627180552 83 206 0.9 4.3 0.00 0.00 0.00 46 1015.9
20220627180455 83 229 0.9 4.3 0.00 0.00 0.00 46 1016.0
20220627180444 83 286 0.9 4.3 0.00 0.00 0.00 46 1016.0
20220627180352 83 221 0.9 4.3 0.00 0.00 0.00 46 1015.9
20220627180253 83 215 0.9 3.5 0.00 0.00 0.00 46 1015.9
20220627180151 82 130 0.9 3.5 0.00 0.00 0.00 48 1016.0
20220627180048 82 113 0.9 3.5 0.00 0.00 0.00 48 1016.0
20220627175949 82 114 0.9 3.5 0.00 0.00 0.00 47 1016.0
20220627175926 82 122 0.9 4.3 0.00 0.00 0.00 47 1016.0
20220627175849 82 105 0.9 4.3 0.00 0.00 0.00 47 1016.0
20220627175749 81 132 0.9 4.3 0.00 0.00 0.00 48 1016.0
20220627175644 81 203 0.9 4.3 0.00 0.00 0.00 49 1016.0
20220627175545 81 217 0.9 4.3 0.00 0.00 0.00 49 1015.9
20220627175444 81 242 0.9 4.3 0.00 0.00 0.00 49 1016.0
20220627175421 80 242 0.9 4.3 0.00 0.00 0.00 49 1016.0
20220627175342 80 193 0.9 4.3 0.00 0.00 0.00 49 1016.0
20220627175241 80 124 1.7 4.3 0.00 0.00 0.00 49 1016.0
20220627175138 80 142 1.7 5.2 0.00 0.00 0.00 48 1016.0
20220627175038 80 228 1.7 5.2 0.00 0.00 0.00 48 1016.0
20220627174936 80 203 1.7 5.2 0.00 0.00 0.00 49 1016.0
20220627174913 80 194 1.7 5.2 0.00 0.00 0.00 49 1016.0
20220627174837 80 256 0.9 5.2 0.00 0.00 0.00 48 1016.0
20220627174734 80 252 0.9 5.2 0.00 0.00 0.00 48 1016.0
20220627174635 80 144 0.9 5.2 0.00 0.00 0.00 49 1016.0
20220627174537 80 198 0.9 5.2 0.00 0.00 0.00 48 1016.1
20220627174432 80 203 0.9 7.0 0.00 0.00 0.00 48 1016.1
20220627174407 80 222 0.9 7.0 0.00 0.00 0.00 48 1016.0
20220627174329 80 183 0.9 7.0 0.00 0.00 0.00 48 1016.0
20220627174228 80 194 0.9 7.0 0.00 0.00 0.00 49 1016.1
20220627174124 79 149 0.9 7.0 0.00 0.00 0.00 50 1016.1
20220627174023 79 279 0.9 7.0 0.00 0.00 0.00 49 1016.1
20220627173922 79 280 0.9 7.0 0.00 0.00 0.00 50 1016.0
20220627173901 79 279 0.9 7.0 0.00 0.00 0.00 50 1016.1
20220627173822 79 280 0.9 7.0 0.00 0.00 0.00 49 1016.1
20220627173722 79 226 0.9 7.0 0.00 0.00 0.00 49 1016.1
20220627173623 79 250 0.9 7.0 0.00 0.00 0.00 49 1016.1
20220627173522 79 184 0.9 7.0 0.00 0.00 0.00 49 1016.1
20220627173423 79 264 0.9 2.6 0.00 0.00 0.00 50 1016.1
20220627173355 79 283 0.9 2.6 0.00 0.00 0.00 50 1016.1
20220627173322 79 285 0.9 2.6 0.00 0.00 0.00 49 1016.1
20220627173220 78 300 0.9 2.6 0.00 0.00 0.00 49 1016.1
20220627173121 78 263 0.9 4.3 0.00 0.00 0.00 50 1016.1
20220627173020 78 236 1.7 7.0 0.00 0.00 0.00 50 1016.1
20220627172921 78 160 1.7 7.0 0.00 0.00 0.00 50 1016.1
20220627172850 78 183 1.7 7.0 0.00 0.00 0.00 50 1016.1
20220627172821 78 158 1.7 7.0 0.00 0.00 0.00 50 1016.1
20220627172720 78 149 1.7 7.0 0.00 0.00 0.00 51 1016.1
20220627172618 77 236 1.7 7.0 0.00 0.00 0.00 51 1016.2
20220627172516 77 284 2.6 7.0 0.00 0.00 0.00 52 1016.2
20220627172415 77 219 2.6 7.0 0.00 0.00 0.00 53 1016.2
20220627172343 77 240 2.6 7.0 0.00 0.00 0.00 53 1016.2
20220627172314 77 257 2.6 7.0 0.00 0.00 0.00 52 1016.2
20220627172214 77 211 2.6 7.0 0.00 0.00 0.00 52 1016.2
20220627172115 77 250 2.6 7.0 0.00 0.00 0.00 52 1016.2
20220627172014 77 185 1.7 6.1 0.00 0.00 0.00 52 1016.1
20220627171915 77 217 1.7 6.1 0.00 0.00 0.00 52 1016.1
20220627171843 77 130 1.7 6.1 0.00 0.00 0.00 52 1016.2
20220627171815 77 162 1.7 6.1 0.00 0.00 0.00 52 1016.2
20220627171715 77 197 1.7 6.1 0.00 0.00 0.00 52 1016.2
20220627171616 77 190 1.7 6.1 0.00 0.00 0.00 53 1016.2
20220627171516 77 214 1.7 4.3 0.00 0.00 0.00 53 1016.2
20220627171413 77 193 1.7 6.1 0.00 0.00 0.00 53 1016.2
20220627171343 77 196 1.7 6.1 0.00 0.00 0.00 54 1016.1
20220627171312 77 219 1.7 6.1 0.00 0.00 0.00 54 1016.1
20220627171212 76 169 1.7 6.1 0.00 0.00 0.00 54 1016.2
20220627171113 76 200 1.7 6.1 0.00 0.00 0.00 54 1016.1
20220627171010 76 191 1.7 6.1 0.00 0.00 0.00 54 1016.1
20220627170910 76 263 1.7 6.1 0.00 0.00 0.00 54 1016.1
20220627170845 76 145 1.7 6.1 0.00 0.00 0.00 54 1016.1
20220627170810 76 190 1.7 6.1 0.00 0.00 0.00 54 1016.1
20220627170711 76 156 1.7 6.1 0.00 0.00 0.00 55 1016.1
20220627170610 76 215 1.7 6.1 0.00 0.00 0.00 55 1016.1
20220627170509 76 210 1.7 5.2 0.00 0.00 0.00 55 1016.1
20220627170408 76 204 1.7 3.5 0.00 0.00 0.00 55 1016.1
20220627170341 76 131 1.7 3.5 0.00 0.00 0.00 55 1016.1
20220627170308 76 134 1.7 3.5 0.00 0.00 0.00 55 1016.1
20220627170208 76 129 1.7 3.5 0.00 0.00 0.00 55 1016.1
20220627170110 75 155 0.9 3.5 0.00 0.00 0.00 56 1016.1
20220627170008 75 119 1.7 3.5 0.00 0.00 0.00 55 1016.2
20220627165908 75 146 1.7 4.3 0.00 0.00 0.00 55 1016.2
20220627165841 75 208 0.9 4.3 0.00 0.00 0.00 55 1016.2
20220627165807 75 245 0.9 4.3 0.00 0.00 0.00 55 1016.2
20220627165706 75 228 0.9 4.3 0.00 0.00 0.00 56 1016.2
20220627165606 75 250 0.9 4.3 0.00 0.00 0.00 56 1016.3
20220627165507 75 217 0.9 4.3 0.00 0.00 0.00 57 1016.2
20220627165405 75 194 1.7 4.3 0.00 0.00 0.00 57 1016.3
20220627165340 75 236 1.7 4.3 0.00 0.00 0.00 57 1016.3
20220627165306 75 236 1.7 4.3 0.00 0.00 0.00 58 1016.2
20220627165206 74 231 1.7 4.3 0.00 0.00 0.00 58 1016.2
20220627165106 74 158 1.7 4.3 0.00 0.00 0.00 58 1016.3
20220627165005 74 195 1.7 4.3 0.00 0.00 0.00 59 1016.3
20220627164904 74 129 1.7 4.3 0.00 0.00 0.00 60 1016.3
20220627164842 74 131 1.7 4.3 0.00 0.00 0.00 60 1016.3
20220627164804 73 129 1.7 4.3 0.00 0.00 0.00 60 1016.3
20220627164704 73 193 1.7 4.3 0.00 0.00 0.00 59 1016.4
20220627164604 73 138 1.7 4.3 0.00 0.00 0.00 60 1016.3
20220627164505 73 143 1.7 4.3 0.00 0.00 0.00 60 1016.4
20220627164404 73 165 2.6 6.1 0.00 0.00 0.00 60 1016.5
20220627164341 73 197 2.6 6.1 0.00 0.00 0.00 60 1016.5
20220627164305 73 176 2.6 6.1 0.00 0.00 0.00 60 1016.4
20220627164204 73 195 2.6 6.1 0.00 0.00 0.00 61 1016.4
20220627164104 73 153 1.7 6.1 0.00 0.00 0.00 61 1016.4
20220627163958 73 150 1.7 6.1 0.00 0.00 0.00 61 1016.4
20220627163858 72 200 1.7 6.1 0.00 0.00 0.00 61 1016.5
20220627163840 72 145 1.7 6.1 0.00 0.00 0.00 61 1016.5
20220627163755 72 122 2.6 6.1 0.00 0.00 0.00 61 1016.5
20220627163657 72 120 1.7 6.1 0.00 0.00 0.00 61 1016.4
20220627163557 72 172 1.7 6.1 0.00 0.00 0.00 61 1016.5
20220627163457 72 231 2.6 6.1 0.00 0.00 0.00 62 1016.5
20220627163356 72 162 2.6 7.0 0.00 0.00 0.00 62 1016.5
20220627163338 72 190 2.6 7.0 0.00 0.00 0.00 62 1016.5
20220627163256 72 221 2.6 7.0 0.00 0.00 0.00 62 1016.4
20220627163157 71 186 2.6 7.0 0.00 0.00 0.00 63 1016.4
20220627163057 71 141 2.6 7.0 0.00 0.00 0.00 63 1016.5
20220627162954 71 217 2.6 7.0 0.00 0.00 0.00 63 1016.4
20220627162853 71 193 2.6 7.0 0.00 0.00 0.00 63 1016.4
20220627162837 71 207 2.6 7.0 0.00 0.00 0.00 63 1016.4
20220627162754 71 231 2.6 7.0 0.00 0.00 0.00 64 1016.5
20220627162652 71 233 2.6 7.0 0.00 0.00 0.00 64 1016.4
20220627162551 71 145 2.6 7.0 0.00 0.00 0.00 63 1016.4
20220627162453 71 214 2.6 7.0 0.00 0.00 0.00 63 1016.5
20220627162352 71 210 2.6 6.1 0.00 0.00 0.00 63 1016.4
20220627162342 71 214 2.6 6.1 0.00 0.00 0.00 63 1016.4
20220627162252 71 249 2.6 6.1 0.00 0.00 0.00 64 1016.4
20220627162153 71 195 2.6 6.1 0.00 0.00 0.00 64 1016.4
20220627162052 71 169 2.6 6.1 0.00 0.00 0.00 64 1016.4
20220627161952 71 225 2.6 6.1 0.00 0.00 0.00 64 1016.4
20220627161855 71 169 2.6 6.1 0.00 0.00 0.00 64 1016.4
20220627161845 71 211 2.6 6.1 0.00 0.00 0.00 65 1016.4
20220627161747 70 217 2.6 5.2 0.00 0.00 0.00 65 1016.4
20220627161646 70 127 2.6 5.2 0.00 0.00 0.00 65 1016.4
20220627161546 70 278 2.6 5.2 0.00 0.00 0.00 65 1016.4
20220627161446 70 188 2.6 5.2 0.00 0.00 0.00 65 1016.4
20220627161347 70 121 2.6 5.2 0.00 0.00 0.00 65 1016.4
20220627161334 70 143 2.6 5.2 0.00 0.00 0.00 65 1016.4
20220627161246 70 219 2.6 5.2 0.00 0.00 0.00 65 1016.4
20220627161146 70 203 2.6 5.2 0.00 0.00 0.00 66 1016.4
20220627161047 70 187 2.6 5.2 0.00 0.00 0.00 66 1016.4
20220627160946 70 153 2.6 5.2 0.00 0.00 0.00 66 1016.5
20220627160847 70 219 2.6 5.2 0.00 0.00 0.00 65 1016.4
20220627160834 70 212 2.6 5.2 0.00 0.00 0.00 65 1016.4
20220627160747 69 210 2.6 5.2 0.00 0.00 0.00 66 1016.5
20220627160646 69 203 2.6 5.2 0.00 0.00 0.00 65 1016.5
20220627160546 69 222 2.6 6.1 0.00 0.00 0.00 65 1016.5
20220627160447 69 215 2.6 6.1 0.00 0.00 0.00 66 1016.4
20220627160349 69 215 2.6 6.1 0.00 0.00 0.00 66 1016.4
20220627160338 69 199 2.6 6.1 0.00 0.00 0.00 66 1016.4
20220627160245 69 144 2.6 6.1 0.00 0.00 0.00 65 1016.4
20220627160146 69 203 2.6 6.1 0.00 0.00 0.00 66 1016.4
20220627160042 69 170 2.6 6.1 0.00 0.00 0.00 66 1016.3
20220627155942 69 136 2.6 6.1 0.00 0.00 0.00 66 1016.3
20220627155843 69 143 2.6 6.1 0.00 0.00 0.00 66 1016.3
20220627155833 69 141 2.6 6.1 0.00 0.00 0.00 66 1016.3
20220627155743 69 149 1.7 6.1 0.00 0.00 0.00 66 1016.3
20220627155640 69 188 1.7 6.1 0.00 0.00 0.00 67 1016.4
20220627155541 69 146 1.7 4.3 0.00 0.00 0.00 67 1016.3
20220627155440 69 130 1.7 4.3 0.00 0.00 0.00 67 1016.3
20220627155344 69 156 1.7 4.3 0.00 0.00 0.00 66 1016.4
20220627155334 69 140 1.7 4.3 0.00 0.00 0.00 66 1016.4
20220627155241 69 130 1.7 4.3 0.00 0.00 0.00 66 1016.4
20220627155141 69 129 1.7 4.3 0.00 0.00 0.00 66 1016.4
20220627155040 69 155 1.7 4.3 0.00 0.00 0.00 66 1016.4
20220627154940 69 193 1.7 4.3 0.00 0.00 0.00 67 1016.4
20220627154841 69 146 1.7 4.3 0.00 0.00 0.00 67 1016.4
20220627154831 69 162 1.7 4.3 0.00 0.00 0.00 67 1016.4
20220627154740 68 211 1.7 4.3 0.00 0.00 0.00 67 1016.3
20220627154639 68 179 2.6 4.3 0.00 0.00 0.00 67 1016.4
20220627154538 68 150 2.6 4.3 0.00 0.00 0.00 67 1016.3
20220627154438 68 184 2.6 4.3 0.00 0.00 0.00 67 1016.4
20220627154337 68 155 1.7 5.2 0.00 0.00 0.00 67 1016.3
20220627154232 68 183 1.7 5.2 0.00 0.00 0.00 68 1016.3
20220627154132 68 159 2.6 5.2 0.00 0.00 0.00 68 1016.3
20220627154032 68 147 1.7 5.2 0.00 0.00 0.00 67 1016.4
20220627153932 68 217 1.7 5.2 0.00 0.00 0.00 67 1016.4
20220627153833 68 129 1.7 5.2 0.00 0.00 0.00 67 1016.3
20220627153828 68 131 1.7 5.2 0.00 0.00 0.00 68 1016.3
20220627153726 68 150 1.7 5.2 0.00 0.00 0.00 68 1016.4
20220627153626 68 138 1.7 5.2 0.00 0.00 0.00 68 1016.3
20220627153525 68 193 1.7 5.2 0.00 0.00 0.00 68 1016.3
20220627153426 67 163 1.7 5.2 0.00 0.00 0.00 68 1016.3
20220627153329 67 158 1.7 4.3 0.00 0.00 0.00 68 1016.3
20220627153324 67 167 1.7 4.3 0.00 0.00 0.00 69 1016.3
20220627153222 67 136 1.7 4.3 0.00 0.00 0.00 68 1016.3
20220627153123 67 224 1.7 4.3 0.00 0.00 0.00 68 1016.3
20220627153022 67 248 1.7 4.3 0.00 0.00 0.00 68 1016.3
20220627152920 67 181 1.7 4.3 0.00 0.00 0.00 68 1016.3
20220627152829 67 181 1.7 4.3 0.00 0.00 0.00 68 1016.3
20220627152814 67 211 1.7 4.3 0.00 0.00 0.00 68 1016.3
20220627152713 67 160 1.7 4.3 0.00 0.00 0.00 68 1016.3
20220627152616 67 208 1.7 3.5 0.00 0.00 0.00 68 1016.3
20220627152514 67 138 2.6 4.3 0.00 0.00 0.00 67 1016.3
20220627152414 67 162 1.7 4.3 0.00 0.00 0.00 67 1016.3
20220627152329 67 165 1.7 4.3 0.00 0.00 0.00 67 1016.3
20220627152308 67 191 1.7 4.3 0.00 0.00 0.00 67 1016.2
20220627152208 67 208 1.7 4.3 0.00 0.00 0.00 67 1016.3
20220627152109 67 246 1.7 4.3 0.00 0.00 0.00 67 1016.2
20220627152008 67 224 1.7 4.3 0.00 0.00 0.00 67 1016.2
20220627151909 68 245 0.9 4.3 0.00 0.00 0.00 67 1016.2
20220627151828 68 188 0.9 4.3 0.00 0.00 0.00 67 1016.2
20220627151802 68 248 0.9 4.3 0.00 0.00 0.00 67 1016.2
20220627151702 68 195 0.9 4.3 0.00 0.00 0.00 66 1016.1
20220627151602 68 174 0.9 3.5 0.00 0.00 0.00 66 1016.1
20220627151501 68 231 0.9 3.5 0.00 0.00 0.00 67 1016.2
20220627151402 68 162 0.9 2.6 0.00 0.00 0.00 67 1016.2
20220627151328 68 123 0.9 2.6 0.00 0.00 0.00 68 1016.2
20220627151255 67 211 0.9 3.5 0.00 0.00 0.00 68 1016.2
20220627151156 67 140 0.9 3.5 0.00 0.00 0.00 68 1016.1
20220627151056 67 188 0.9 3.5 0.00 0.00 0.00 68 1016.1
20220627150958 67 217 0.9 3.5 0.00 0.00 0.00 68 1016.1
20220627150828 67 224 1.7 5.2 0.00 0.00 0.00 68 1016.1
20220627150754 67 222 1.7 5.2 0.00 0.00 0.00 68 1016.1
20220627150657 67 212 1.7 5.2 0.00 0.00 0.00 68 1016.1
20220627150554 66 158 1.7 5.2 0.00 0.00 0.00 68 1016.2
20220627150452 66 142 1.7 5.2 0.00 0.00 0.00 68 1016.2
20220627150328 67 248 1.7 5.2 0.00 0.00 0.00 67 1016.2
20220627150246 67 207 1.7 5.2 0.00 0.00 0.00 67 1016.2
20220627150146 67 240 1.7 5.2 0.00 0.00 0.00 66 1016.2
20220627150044 67 222 0.9 5.2 0.00 0.00 0.00 66 1016.2
20220627145944 67 160 0.9 5.2 0.00 0.00 0.00 66 1016.2
20220627145844 67 154 0.9 3.5 0.00 0.00 0.00 66 1016.1
20220627145827 67 132 0.9 3.5 0.00 0.00 0.00 66 1016.1
20220627145741 67 204 0.9 3.5 0.00 0.00 0.00 66 1016.1
20220627145642 67 150 0.9 3.5 0.00 0.00 0.00 66 1016.1
20220627145543 67 139 0.9 3.5 0.00 0.00 0.00 67 1016.1
20220627145441 67 162 0.9 2.6 0.00 0.00 0.00 67 1016.0
20220627145347 67 212 0.9 3.5 0.00 0.00 0.00 67 1016.0
20220627145327 67 213 0.9 3.5 0.00 0.00 0.00 67 1016.0
20220627145233 67 150 0.9 3.5 0.00 0.00 0.00 67 1016.0
20220627145133 67 224 0.9 3.5 0.00 0.00 0.00 67 1016.0
20220627145032 67 224 1.7 3.5 0.00 0.00 0.00 67 1016.0
20220627144932 67 208 1.7 3.5 0.00 0.00 0.00 67 1016.1
20220627144831 67 204 1.7 3.5 0.00 0.00 0.00 66 1016.0
20220627144726 67 197 0.9 3.5 0.00 0.00 0.00 66 1016.0
20220627144624 67 149 0.9 3.5 0.00 0.00 0.00 66 1016.0
20220627144525 67 256 0.9 3.5 0.00 0.00 0.00 66 1016.0
20220627144424 67 145 0.9 3.5 0.00 0.00 0.00 65 1016.0
20220627144329 67 179 0.9 3.5 0.00 0.00 0.00 65 1016.0
20220627144323 67 162 0.9 3.5 0.00 0.00 0.00 65 1016.0
20220627144218 67 163 0.9 3.5 0.00 0.00 0.00 65 1016.0
20220627144118 67 177 0.9 3.5 0.00 0.00 0.00 66 1015.9
20220627144018 67 193 0.0 3.5 0.00 0.00 0.00 67 1016.0
20220627143921 67 197 0.0 2.6 0.00 0.00 0.00 67 1015.9
20220627143824 67 195 0.0 2.6 0.00 0.00 0.00 67 1015.9
20220627143818 67 155 0.0 2.6 0.00 0.00 0.00 67 1015.9
20220627143718 67 193 0.0 2.6 0.00 0.00 0.00 67 1015.9
20220627143617 67 197 0.0 0.9 0.00 0.00 0.00 67 1015.9
20220627143516 67 197 0.0 0.9 0.00 0.00 0.00 68 1015.9
20220627143414 67 197 0.0 0.9 0.00 0.00 0.00 68 1015.9
20220627143324 66 197 0.0 0.9 0.00 0.00 0.00 68 1015.9
20220627143312 66 197 0.0 0.9 0.00 0.00 0.00 68 1015.8
20220627143208 66 197 0.0 0.9 0.00 0.00 0.00 68 1015.8
20220627143108 66 197 0.0 1.7 0.00 0.00 0.00 69 1015.8
20220627143010 66 197 0.0 1.7 0.00 0.00 0.00 70 1015.8
20220627142908 66 197 0.0 1.7 0.00 0.00 0.00 70 1015.9
20220627142821 66 198 0.0 1.7 0.00 0.00 0.00 70 1015.9
20220627142807 66 198 0.0 1.7 0.00 0.00 0.00 70 1015.8
20220627142700 65 198 0.0 1.7 0.00 0.00 0.00 70 1015.9
20220627142600 65 207 0.0 1.7 0.00 0.00 0.00 70 1015.9
20220627142500 65 141 0.0 1.7 0.00 0.00 0.00 71 1015.9
20220627142400 65 141 0.9 1.7 0.00 0.00 0.00 71 1015.9
20220627142320 65 188 0.9 1.7 0.00 0.00 0.00 71 1015.9
20220627142300 65 193 0.0 1.7 0.00 0.00 0.00 71 1015.9
20220627142200 65 211 0.0 1.7 0.00 0.00 0.00 70 1015.9
20220627142059 65 207 0.9 1.7 0.00 0.00 0.00 71 1015.9
20220627141957 65 211 0.9 1.7 0.00 0.00 0.00 71 1015.9
20220627141855 65 194 0.9 1.7 0.00 0.00 0.00 71 1015.9
20220627141820 65 144 0.9 1.7 0.00 0.00 0.00 71 1015.9
20220627141754 64 193 0.9 1.7 0.00 0.00 0.00 72 1015.9
20220627141652 64 193 0.9 2.6 0.00 0.00 0.00 72 1015.8
20220627141548 64 134 0.9 3.5 0.00 0.00 0.00 73 1015.8
20220627141445 64 127 0.9 3.5 0.00 0.00 0.00 73 1015.7
20220627141346 64 117 0.9 3.5 0.00 0.00 0.00 73 1015.8
20220627141319 64 144 0.9 3.5 0.00 0.00 0.00 73 1015.8
20220627141247 64 155 1.7 3.5 0.00 0.00 0.00 73 1015.8
20220627141146 63 163 1.7 3.5 0.00 0.00 0.00 73 1015.9
20220627141044 63 138 1.7 3.5 0.00 0.00 0.00 74 1015.9
20220627140944 63 150 1.7 3.5 0.00 0.00 0.00 74 1015.9
20220627140842 63 206 1.7 3.5 0.00 0.00 0.00 74 1015.9
20220627140819 63 205 1.7 3.5 0.00 0.00 0.00 74 1015.9
20220627140740 63 200 0.9 3.5 0.00 0.00 0.00 74 1015.8
20220627140636 63 235 0.9 3.5 0.00 0.00 0.00 73 1015.8
20220627140536 63 228 0.9 3.5 0.00 0.00 0.00 74 1015.8
20220627140439 63 243 0.9 3.5 0.00 0.00 0.00 74 1015.8
20220627140319 63 248 0.9 3.5 0.00 0.00 0.00 74 1015.8
20220627140236 63 243 0.9 3.5 0.00 0.00 0.00 74 1015.8
20220627140136 63 235 0.9 3.5 0.00 0.00 0.00 74 1015.8
20220627140036 63 238 1.7 3.5 0.00 0.00 0.00 75 1015.8
20220627135936 63 221 1.7 3.5 0.00 0.00 0.00 75 1015.8
20220627135833 62 217 1.7 3.5 0.00 0.00 0.00 75 1015.8
20220627135819 62 214 1.7 3.5 0.00 0.00 0.00 75 1015.8
20220627135734 62 232 1.7 3.5 0.00 0.00 0.00 75 1015.7
20220627135633 62 222 1.7 3.5 0.00 0.00 0.00 75 1015.8
20220627135533 62 151 1.7 3.5 0.00 0.00 0.00 75 1015.8
20220627135432 62 210 1.7 3.5 0.00 0.00 0.00 75 1015.7
20220627135332 62 222 1.7 3.5 0.00 0.00 0.00 75 1015.7
20220627135320 62 211 1.7 3.5 0.00 0.00 0.00 75 1015.7
20220627135234 62 228 0.9 3.5 0.00 0.00 0.00 75 1015.7
20220627135133 62 243 0.9 3.5 0.00 0.00 0.00 76 1015.8
20220627135031 62 211 0.9 3.5 0.00 0.00 0.00 76 1015.7
20220627134925 62 247 0.9 3.5 0.00 0.00 0.00 76 1015.7
20220627134830 62 256 0.9 3.5 0.00 0.00 0.00 76 1015.7
20220627134819 62 235 0.9 3.5 0.00 0.00 0.00 76 1015.7
20220627134727 62 236 0.9 3.5 0.00 0.00 0.00 76 1015.6
20220627134626 62 195 0.9 2.6 0.00 0.00 0.00 76 1015.6
20220627134525 62 221 0.9 2.6 0.00 0.00 0.00 76 1015.5
20220627134424 62 219 0.9 2.6 0.00 0.00 0.00 77 1015.6
20220627134329 62 226 0.9 2.6 0.00 0.00 0.00 77 1015.6
20220627134319 62 228 0.9 2.6 0.00 0.00 0.00 77 1015.6
20220627134223 62 150 0.9 2.6 0.00 0.00 0.00 78 1015.6
20220627134123 61 224 0.9 3.5 0.00 0.00 0.00 78 1015.6
20220627134022 61 150 0.9 3.5 0.00 0.00 0.00 79 1015.7
20220627133922 61 183 0.9 3.5 0.00 0.00 0.00 79 1015.6
20220627133824 61 169 0.9 3.5 0.00 0.00 0.00 79 1015.6
20220627133721 61 153 0.9 4.3 0.00 0.00 0.00 79 1015.5
20220627133622 61 235 0.9 4.3 0.00 0.00 0.00 80 1015.5
20220627133522 60 158 0.9 4.3 0.00 0.00 0.00 80 1015.5
20220627133421 60 228 0.9 4.3 0.00 0.00 0.00 80 1015.5
20220627133323 60 191 0.9 4.3 0.00 0.00 0.00 81 1015.5
20220627133222 60 211 0.9 4.3 0.00 0.00 0.00 81 1015.5
20220627133122 60 235 0.9 4.3 0.00 0.00 0.00 81 1015.4
20220627133022 60 195 0.9 4.3 0.00 0.00 0.00 81 1015.5
20220627132924 60 227 0.9 4.3 0.00 0.00 0.00 81 1015.4
20220627132823 60 203 0.9 4.3 0.00 0.00 0.00 81 1015.4
20220627132718 59 193 0.9 2.6 0.00 0.00 0.00 81 1015.4
20220627132618 59 205 0.9 2.6 0.00 0.00 0.00 81 1015.3
20220627132519 59 235 0.9 3.5 0.00 0.00 0.00 81 1015.3
20220627132418 59 226 0.9 3.5 0.00 0.00 0.00 82 1015.3
20220627132317 59 225 0.9 3.5 0.00 0.00 0.00 82 1015.3
20220627132211 59 253 0.0 3.5 0.00 0.00 0.00 82 1015.3
20220627132112 59 226 0.0 3.5 0.00 0.00 0.00 82 1015.3
20220627132010 59 232 0.0 3.5 0.00 0.00 0.00 82 1015.3
20220627131910 59 219 0.0 3.5 0.00 0.00 0.00 81 1015.2
20220627131813 59 236 0.0 3.5 0.00 0.00 0.00 81 1015.2
20220627131704 59 200 0.0 3.5 0.00 0.00 0.00 81 1015.1
20220627131605 59 200 0.0 3.5 0.00 0.00 0.00 81 1015.2
20220627131504 59 222 0.0 1.7 0.00 0.00 0.00 81 1015.2
20220627131405 59 228 0.0 1.7 0.00 0.00 0.00 81 1015.1
20220627131305 59 301 0.0 1.7 0.00 0.00 0.00 81 1015.2
20220627131202 59 300 0.0 1.7 0.00 0.00 0.00 81 1015.1
20220627131102 59 257 0.0 1.7 0.00 0.00 0.00 81 1015.2
20220627131001 59 190 0.9 3.5 0.00 0.00 0.00 81 1015.2
20220627130900 59 190 0.9 3.5 0.00 0.00 0.00 81 1015.1
20220627130759 59 270 0.9 3.5 0.00 0.00 0.00 81 1015.1
20220627130654 59 270 0.9 3.5 0.00 0.00 0.00 81 1015.2
20220627130552 59 270 0.9 3.5 0.00 0.00 0.00 81 1015.2
20220627130453 59 242 0.9 3.5 0.00 0.00 0.00 81 1015.2
20220627130352 59 221 0.9 3.5 0.00 0.00 0.00 81 1015.2
20220627130310 59 225 1.7 3.5 0.00 0.00 0.00 81 1015.2
20220627130252 59 198 1.7 3.5 0.00 0.00 0.00 81 1015.2
20220627130149 59 218 1.7 3.5 0.00 0.00 0.00 81 1015.2
20220627130051 59 254 1.7 3.5 0.00 0.00 0.00 81 1015.2
20220627125950 59 239 1.7 3.5 0.00 0.00 0.00 80 1015.2
20220627125849 59 239 1.7 5.2 0.00 0.00 0.00 80 1015.1
20220627125753 59 221 1.7 5.2 0.00 0.00 0.00 80 1015.2
20220627125746 59 226 1.7 5.2 0.00 0.00 0.00 80 1015.2
20220627125642 59 243 1.7 5.2 0.00 0.00 0.00 80 1015.1
20220627125539 59 252 1.7 5.2 0.00 0.00 0.00 80 1015.2
20220627125440 59 198 1.7 5.2 0.00 0.00 0.00 80 1015.1
20220627125340 59 214 1.7 5.2 0.00 0.00 0.00 80 1015.1
20220627125253 60 211 1.7 5.2 0.00 0.00 0.00 80 1015.0
20220627125239 60 226 1.7 5.2 0.00 0.00 0.00 80 1015.0
20220627125136 60 225 1.7 5.2 0.00 0.00 0.00 80 1015.0
20220627125034 60 228 1.7 5.2 0.00 0.00 0.00 80 1015.1
20220627124934 60 228 1.7 5.2 0.00 0.00 0.00 80 1015.1
20220627124834 60 212 1.7 5.2 0.00 0.00 0.00 79 1015.1
20220627124753 60 173 1.7 3.5 0.00 0.00 0.00 79 1015.0
20220627124734 60 231 1.7 3.5 0.00 0.00 0.00 79 1015.0
20220627124632 60 194 1.7 3.5 0.00 0.00 0.00 79 1015.0
20220627124534 60 250 0.9 3.5 0.00 0.00 0.00 79 1015.1
20220627124433 60 198 0.9 2.6 0.00 0.00 0.00 79 1015.0
20220627124330 60 224 0.9 2.6 0.00 0.00 0.00 79 1015.0
20220627124228 60 222 0.9 2.6 0.00 0.00 0.00 78 1015.0
20220627124127 60 211 0.9 2.6 0.00 0.00 0.00 78 1015.0
20220627124022 60 151 0.9 2.6 0.00 0.00 0.00 78 1015.0
20220627123923 60 150 0.9 2.6 0.00 0.00 0.00 78 1015.0
20220627123823 60 193 0.9 2.6 0.00 0.00 0.00 78 1015.0
20220627123751 60 192 0.9 2.6 0.00 0.00 0.00 78 1015.0
20220627123722 60 138 0.9 2.6 0.00 0.00 0.00 77 1015.0
20220627123619 60 208 0.9 2.6 0.00 0.00 0.00 77 1014.9
20220627123520 60 190 0.9 2.6 0.00 0.00 0.00 77 1014.9
20220627123418 60 205 0.9 1.7 0.00 0.00 0.00 77 1014.9
20220627123318 60 210 0.9 1.7 0.00 0.00 0.00 77 1015.0
20220627123251 60 226 0.9 1.7 0.00 0.00 0.00 77 1015.0
20220627123218 60 132 0.9 1.7 0.00 0.00 0.00 77 1015.0
20220627123117 60 132 0.9 1.7 0.00 0.00 0.00 76 1015.0
20220627123018 60 140 0.9 1.7 0.00 0.00 0.00 76 1015.0
20220627122920 60 162 0.9 1.7 0.00 0.00 0.00 76 1015.0
20220627122817 60 195 0.9 1.7 0.00 0.00 0.00 76 1015.0
20220627122749 60 195 0.9 2.6 0.00 0.00 0.00 76 1015.0
20220627122715 60 212 0.9 2.6 0.00 0.00 0.00 76 1015.0
20220627122616 60 183 0.9 3.5 0.00 0.00 0.00 76 1014.9
20220627122517 60 212 0.9 3.5 0.00 0.00 0.00 76 1014.9
20220627122416 60 129 0.9 4.3 0.00 0.00 0.00 76 1014.9
20220627122316 60 135 0.9 4.3 0.00 0.00 0.00 76 1014.9
20220627122247 60 134 0.9 4.3 0.00 0.00 0.00 76 1014.9
20220627122217 60 132 0.9 4.3 0.00 0.00 0.00 76 1014.9
20220627122116 60 133 0.9 4.3 0.00 0.00 0.00 76 1014.9
20220627122014 60 132 0.9 4.3 0.00 0.00 0.00 76 1014.9
20220627121914 60 195 0.9 4.3 0.00 0.00 0.00 76 1014.9
20220627121814 60 223 0.9 4.3 0.00 0.00 0.00 76 1014.8
20220627121747 60 212 0.9 4.3 0.00 0.00 0.00 76 1014.8
20220627121714 60 253 0.9 4.3 0.00 0.00 0.00 76 1014.8
20220627121614 60 216 0.9 4.3 0.00 0.00 0.00 76 1014.8
20220627121514 60 200 0.9 4.3 0.00 0.00 0.00 76 1014.8
20220627121410 60 218 0.9 4.3 0.00 0.00 0.00 75 1014.8
20220627121308 60 117 0.9 4.3 0.00 0.00 0.00 76 1014.8
20220627121248 60 105 0.9 4.3 0.00 0.00 0.00 76 1014.8
20220627121207 60 141 0.9 4.3 0.00 0.00 0.00 76 1014.7
20220627121108 61 194 0.9 4.3 0.00 0.00 0.00 75 1014.7
20220627121010 61 198 0.9 4.3 0.00 0.00 0.00 75 1014.7
20220627120902 61 198 0.9 4.3 0.00 0.00 0.00 75 1014.7
20220627120803 61 198 0.9 4.3 0.00 0.00 0.00 75 1014.7
20220627120747 61 155 0.9 4.3 0.00 0.00 0.00 75 1014.7
20220627120701 61 205 0.9 4.3 0.00 0.00 0.00 75 1014.7
20220627120604 61 229 0.9 4.3 0.00 0.00 0.00 75 1014.7
20220627120503 61 212 0.9 3.5 0.00 0.00 0.00 75 1014.6
20220627120359 61 221 0.9 3.5 0.00 0.00 0.00 75 1014.6
20220627120310 61 217 0.9 3.5 0.00 0.00 0.00 75 1014.7
20220627120301 61 219 0.9 3.5 0.00 0.00 0.00 75 1014.7
20220627120158 61 165 0.9 3.5 0.00 0.00 0.00 75 1014.7
20220627120058 61 210 0.9 3.5 0.00 0.00 0.00 75 1014.7
20220627115956 61 207 1.7 3.5 0.00 0.00 0.00 75 1014.7
20220627115853 61 226 1.7 3.5 0.00 0.00 0.00 75 1014.6
20220627115759 61 161 1.7 3.5 0.00 0.00 0.00 75 1014.6
20220627115749 61 162 1.7 3.5 0.00 0.00 0.00 75 1014.6
20220627115652 61 225 0.9 3.5 0.00 0.00 0.00 75 1014.6
20220627115549 61 225 0.9 3.5 0.00 0.00 0.00 75 1014.6
20220627115449 61 217 1.7 3.5 0.00 0.00 0.00 74 1014.6
20220627115349 61 203 0.9 3.5 0.00 0.00 0.00 74 1014.6
20220627115253 61 229 1.7 3.5 0.00 0.00 0.00 74 1014.5
20220627115150 61 223 1.7 3.5 0.00 0.00 0.00 74 1014.5
20220627115050 61 222 1.7 3.5 0.00 0.00 0.00 74 1014.5
20220627114950 61 212 1.7 3.5 0.00 0.00 0.00 73 1014.5
20220627114850 61 195 0.9 3.5 0.00 0.00 0.00 73 1014.5
20220627114751 61 215 0.9 3.5 0.00 0.00 0.00 73 1014.5
20220627114650 61 146 0.9 3.5 0.00 0.00 0.00 73 1014.5
20220627114550 61 217 0.9 3.5 0.00 0.00 0.00 73 1014.6
20220627114450 61 193 0.9 3.5 0.00 0.00 0.00 73 1014.5
20220627114351 61 205 0.9 3.5 0.00 0.00 0.00 73 1014.5
20220627114251 61 211 0.9 3.5 0.00 0.00 0.00 73 1014.5
20220627114147 61 176 0.9 2.6 0.00 0.00 0.00 72 1014.5
20220627114044 61 217 0.9 2.6 0.00 0.00 0.00 72 1014.5
20220627113943 61 226 0.9 2.6 0.00 0.00 0.00 72 1014.5
20220627113844 61 141 0.9 2.6 0.00 0.00 0.00 72 1014.4
20220627113748 61 159 0.9 1.7 0.00 0.00 0.00 72 1014.5
20220627113640 61 221 0.9 1.7 0.00 0.00 0.00 71 1014.5
20220627113538 61 148 0.9 2.6 0.00 0.00 0.00 71 1014.4
20220627113438 62 207 0.9 2.6 0.00 0.00 0.00 71 1014.4
20220627113338 62 238 0.9 2.6 0.00 0.00 0.00 71 1014.4
20220627113239 62 215 0.9 2.6 0.00 0.00 0.00 71 1014.4
20220627113132 62 214 0.9 2.6 0.00 0.00 0.00 71 1014.4
20220627113035 62 129 0.9 2.6 0.00 0.00 0.00 71 1014.4
20220627112932 62 224 0.9 2.6 0.00 0.00 0.00 71 1014.5
20220627112832 62 224 0.9 2.6 0.00 0.00 0.00 71 1014.5
20220627112733 62 224 0.9 2.6 0.00 0.00 0.00 71 1014.4
20220627112632 62 224 0.9 2.6 0.00 0.00 0.00 71 1014.4
20220627112531 62 221 0.9 2.6 0.00 0.00 0.00 71 1014.4
20220627112430 62 233 0.9 2.6 0.00 0.00 0.00 71 1014.4
20220627112327 62 217 1.7 4.3 0.00 0.00 0.00 71 1014.5
20220627112227 62 228 1.7 4.3 0.00 0.00 0.00 71 1014.4
20220627112126 62 215 1.7 4.3 0.00 0.00 0.00 71 1014.5
20220627112024 62 195 1.7 4.3 0.00 0.00 0.00 71 1014.4
20220627111924 62 217 0.9 4.3 0.00 0.00 0.00 71 1014.4
20220627111822 62 148 0.9 4.3 0.00 0.00 0.00 71 1014.5
20220627111721 62 162 0.9 4.3 0.00 0.00 0.00 71 1014.5
20220627111619 62 155 0.9 4.3 0.00 0.00 0.00 71 1014.4
20220627111516 62 194 0.9 4.3 0.00 0.00 0.00 71 1014.4
20220627111416 62 226 0.9 4.3 0.00 0.00 0.00 71 1014.4
20220627111316 61 183 0.9 2.6 0.00 0.00 0.00 71 1014.3
20220627111214 61 204 0.9 1.7 0.00 0.00 0.00 71 1014.4
20220627111112 61 212 0.9 1.7 0.00 0.00 0.00 71 1014.4
20220627111012 61 204 0.9 1.7 0.00 0.00 0.00 71 1014.4
20220627110912 62 195 0.0 1.7 0.00 0.00 0.00 70 1014.4
20220627110810 62 193 0.0 1.7 0.00 0.00 0.00 70 1014.4
20220627110709 62 193 0.9 1.7 0.00 0.00 0.00 70 1014.4
20220627110605 62 193 0.9 1.7 0.00 0.00 0.00 70 1014.4
20220627110502 62 176 0.9 1.7 0.00 0.00 0.00 70 1014.5
20220627110404 62 199 0.9 1.7 0.00 0.00 0.00 70 1014.4
20220627110302 62 198 0.9 1.7 0.00 0.00 0.00 70 1014.5
20220627110203 62 212 0.9 1.7 0.00 0.00 0.00 70 1014.4
20220627110100 62 203 0.9 1.7 0.00 0.00 0.00 70 1014.4
20220627110000 62 203 0.9 1.7 0.00 0.00 0.00 70 1014.4
20220627105900 62 203 0.9 1.7 0.00 0.00 0.00 70 1014.4
20220627105758 62 190 0.9 1.7 0.00 0.00 0.00 70 1014.4
20220627105656 62 141 0.9 1.7 0.00 0.00 0.00 69 1014.4
20220627105557 62 117 0.9 1.7 0.00 0.00 0.00 69 1014.4
20220627105454 62 110 0.9 1.7 0.00 0.00 0.00 69 1014.4
20220627105357 62 144 0.9 1.7 0.00 0.00 0.00 69 1014.5
20220627105252 62 124 0.9 2.6 0.00 0.00 0.00 69 1014.4
20220627105159 62 129 0.9 2.6 0.00 0.00 0.00 69 1014.4
20220627105151 62 130 0.9 2.6 0.00 0.00 0.00 69 1014.4
20220627105052 62 124 0.9 2.6 0.00 0.00 0.00 69 1014.4
20220627104952 62 169 0.9 2.6 0.00 0.00 0.00 69 1014.4
20220627104853 62 124 0.9 2.6 0.00 0.00 0.00 69 1014.4
20220627104749 62 124 0.9 2.6 0.00 0.00 0.00 69 1014.3
20220627104650 62 124 0.9 2.6 0.00 0.00 0.00 69 1014.4
20220627104549 62 95 0.9 3.5 0.00 0.00 0.00 69 1014.4
20220627104449 62 141 0.9 3.5 0.00 0.00 0.00 69 1014.3
20220627104350 62 138 0.9 3.5 0.00 0.00 0.00 69 1014.3
20220627104249 62 141 0.9 3.5 0.00 0.00 0.00 69 1014.4
20220627104159 62 137 0.9 3.5 0.00 0.00 0.00 69 1014.4
20220627104148 62 136 0.9 3.5 0.00 0.00 0.00 69 1014.4
20220627104048 62 138 0.9 3.5 0.00 0.00 0.00 69 1014.4
20220627103949 62 110 0.9 3.5 0.00 0.00 0.00 69 1014.3
20220627103848 62 139 0.9 3.5 0.00 0.00 0.00 69 1014.3
20220627103748 62 129 0.9 3.5 0.00 0.00 0.00 69 1014.3
20220627103700 62 124 0.9 3.5 0.00 0.00 0.00 69 1014.3
20220627103648 62 155 0.9 3.5 0.00 0.00 0.00 70 1014.3
20220627103547 62 136 0.9 2.6 0.00 0.00 0.00 70 1014.3
20220627103448 62 137 0.9 2.6 0.00 0.00 0.00 70 1014.3
20220627103348 62 142 0.0 2.6 0.00 0.00 0.00 69 1014.2
20220627103246 62 120 0.0 2.6 0.00 0.00 0.00 70 1014.3
20220627103201 62 107 0.0 2.6 0.00 0.00 0.00 70 1014.3
20220627103146 62 134 0.0 2.6 0.00 0.00 0.00 70 1014.3
20220627103043 62 134 0.0 2.6 0.00 0.00 0.00 70 1014.3
20220627102941 62 129 0.0 1.7 0.00 0.00 0.00 70 1014.3
20220627102837 62 143 0.0 1.7 0.00 0.00 0.00 70 1014.3
20220627102736 62 153 0.0 1.7 0.00 0.00 0.00 69 1014.3
20220627102659 62 153 0.0 1.7 0.00 0.00 0.00 69 1014.3
20220627102636 62 152 0.0 1.7 0.00 0.00 0.00 69 1014.3
20220627102536 62 130 0.0 1.7 0.00 0.00 0.00 69 1014.3
20220627102436 62 134 0.0 1.7 0.00 0.00 0.00 69 1014.3
20220627102337 62 134 0.0 2.6 0.00 0.00 0.00 69 1014.3
20220627102233 62 134 0.0 2.6 0.00 0.00 0.00 69 1014.3
20220627102159 62 134 0.0 2.6 0.00 0.00 0.00 69 1014.3
20220627102132 62 113 0.0 2.6 0.00 0.00 0.00 69 1014.3
20220627102032 62 148 0.0 2.6 0.00 0.00 0.00 69 1014.3
20220627101930 62 148 0.0 2.6 0.00 0.00 0.00 69 1014.3
20220627101829 62 148 0.9 2.6 0.00 0.00 0.00 69 1014.3
20220627101731 62 148 0.9 2.6 0.00 0.00 0.00 69 1014.3
20220627101658 62 148 0.9 2.6 0.00 0.00 0.00 69 1014.3
20220627101628 62 148 0.9 2.6 0.00 0.00 0.00 69 1014.3
20220627101526 62 148 0.9 2.6 0.00 0.00 0.00 69 1014.2
20220627101424 62 218 0.9 2.6 0.00 0.00 0.00 69 1014.3
20220627101318 62 136 0.9 2.6 0.00 0.00 0.00 69 1014.2
20220627101219 62 125 0.9 2.6 0.00 0.00 0.00 69 1014.3
20220627101157 62 151 0.9 2.6 0.00 0.00 0.00 69 1014.3
20220627101119 62 158 0.9 2.6 0.00 0.00 0.00 69 1014.3
20220627101019 62 146 0.9 2.6 0.00 0.00 0.00 69 1014.3
20220627100918 62 192 0.9 2.6 0.00 0.00 0.00 69 1014.2
20220627100812 62 219 0.0 1.7 0.00 0.00 0.00 69 1014.3
20220627100711 62 219 0.0 1.7 0.00 0.00 0.00 69 1014.3
20220627100658 62 194 0.0 1.7 0.00 0.00 0.00 69 1014.3
20220627100612 62 194 0.0 1.7 0.00 0.00 0.00 69 1014.3
20220627100512 62 193 0.0 1.7 0.00 0.00 0.00 69 1014.3
20220627100412 62 212 0.0 1.7 0.00 0.00 0.00 69 1014.3
20220627100311 62 204 0.0 1.7 0.00 0.00 0.00 69 1014.3
20220627100210 62 144 0.0 1.7 0.00 0.00 0.00 69 1014.3
20220627100158 62 144 0.0 1.7 0.00 0.00 0.00 69 1014.3
20220627100113 62 144 0.0 1.7 0.00 0.00 0.00 69 1014.3
20220627100009 62 141 0.0 1.7 0.00 0.00 0.00 69 1014.3
20220627095905 62 139 0.0 1.7 0.00 0.00 0.00 69 1014.3
20220627095807 62 141 0.0 1.7 0.00 0.00 0.00 69 1014.2
20220627095657 63 141 0.0 1.7 0.00 0.00 0.00 69 1014.3
20220627095604 62 141 0.0 1.7 0.00 0.00 0.00 68 1014.2
20220627095509 63 131 0.9 1.7 0.00 0.00 0.00 68 1014.3
20220627095404 63 179 0.9 2.6 0.00 0.00 0.00 68 1014.2
20220627095304 63 204 0.9 2.6 0.00 0.00 0.00 68 1014.2
20220627095156 63 224 0.9 2.6 0.00 0.00 0.00 68 1014.2
20220627095059 63 224 0.9 2.6 0.00 0.00 0.00 68 1014.2
20220627095000 63 205 0.9 2.6 0.00 0.00 0.00 68 1014.2
20220627094900 63 205 0.9 2.6 0.00 0.00 0.00 68 1014.2
20220627094758 63 188 0.9 2.6 0.00 0.00 0.00 68 1014.2
20220627094659 63 129 0.9 2.6 0.00 0.00 0.00 68 1014.2
20220627094600 63 127 0.9 2.6 0.00 0.00 0.00 68 1014.2
20220627094458 63 127 0.0 2.6 0.00 0.00 0.00 68 1014.2
20220627094356 63 143 0.0 1.7 0.00 0.00 0.00 68 1014.1
20220627094255 63 143 0.0 1.7 0.00 0.00 0.00 68 1014.1
20220627094157 63 201 0.0 1.7 0.00 0.00 0.00 68 1014.2
20220627094056 63 158 0.0 1.7 0.00 0.00 0.00 68 1014.2
20220627093956 63 203 0.0 1.7 0.00 0.00 0.00 68 1014.1
20220627093857 63 160 0.0 0.9 0.00 0.00 0.00 68 1014.2
20220627093756 63 161 0.0 0.9 0.00 0.00 0.00 67 1014.2
20220627093658 63 132 0.0 0.9 0.00 0.00 0.00 67 1014.2
20220627093559 63 132 0.0 0.9 0.00 0.00 0.00 67 1014.1
20220627093455 63 133 0.0 0.9 0.00 0.00 0.00 67 1014.2
20220627093354 63 127 0.0 0.9 0.00 0.00 0.00 67 1014.2
20220627093252 63 127 0.0 1.7 0.00 0.00 0.00 67 1014.2
20220627093152 63 193 0.0 1.7 0.00 0.00 0.00 67 1014.1
20220627093046 64 193 0.0 1.7 0.00 0.00 0.00 67 1014.1
20220627092943 64 193 0.0 1.7 0.00 0.00 0.00 67 1014.1
20220627092843 64 193 0.9 1.7 0.00 0.00 0.00 67 1014.1
20220627092742 64 193 0.9 1.7 0.00 0.00 0.00 67 1014.1
20220627092644 64 193 0.9 1.7 0.00 0.00 0.00 67 1014.1
20220627092539 64 193 0.9 2.6 0.00 0.00 0.00 66 1014.1
20220627092436 64 193 0.9 2.6 0.00 0.00 0.00 66 1014.1
20220627092336 64 212 0.9 2.6 0.00 0.00 0.00 66 1014.1
20220627092236 64 222 0.9 2.6 0.00 0.00 0.00 66 1014.1
20220627092145 64 207 0.9 2.6 0.00 0.00 0.00 66 1014.1
20220627092139 64 210 0.9 2.6 0.00 0.00 0.00 66 1014.1
20220627092037 64 201 0.9 2.6 0.00 0.00 0.00 66 1014.1
20220627091936 64 188 0.9 2.6 0.00 0.00 0.00 66 1014.1
20220627091836 64 191 0.9 2.6 0.00 0.00 0.00 66 1014.1
20220627091737 64 115 0.9 2.6 0.00 0.00 0.00 66 1014.1
20220627091646 64 187 0.9 2.6 0.00 0.00 0.00 66 1014.2
20220627091636 64 188 0.9 2.6 0.00 0.00 0.00 66 1014.2
20220627091536 64 170 0.9 2.6 0.00 0.00 0.00 66 1014.1
20220627091436 64 144 0.9 2.6 0.00 0.00 0.00 66 1014.1
20220627091332 64 212 0.9 1.7 0.00 0.00 0.00 66 1014.1
20220627091233 64 167 0.9 1.7 0.00 0.00 0.00 66 1014.1
20220627091145 64 167 0.9 1.7 0.00 0.00 0.00 66 1014.1
20220627091132 64 138 0.9 1.7 0.00 0.00 0.00 66 1014.1
20220627091032 64 129 0.9 1.7 0.00 0.00 0.00 66 1014.0
20220627090931 64 191 0.9 1.7 0.00 0.00 0.00 66 1014.1
20220627090830 64 128 0.9 2.6 0.00 0.00 0.00 66 1014.1
20220627090730 64 128 0.9 2.6 0.00 0.00 0.00 66 1014.1
20220627090643 64 137 0.9 2.6 0.00 0.00 0.00 66 1014.1
20220627090630 64 136 0.9 2.6 0.00 0.00 0.00 66 1014.1
20220627090528 64 135 0.9 2.6 0.00 0.00 0.00 66 1014.1
20220627090428 64 134 0.9 2.6 0.00 0.00 0.00 66 1014.1
20220627090327 64 120 0.9 2.6 0.00 0.00 0.00 66 1014.1
20220627090224 64 131 0.9 2.6 0.00 0.00 0.00 66 1014.1
20220627090144 64 133 0.9 2.6 0.00 0.00 0.00 67 1014.1
20220627090124 64 132 0.9 2.6 0.00 0.00 0.00 67 1014.1
20220627090022 64 129 0.9 2.6 0.00 0.00 0.00 67 1014.1
20220627085921 64 129 0.9 2.6 0.00 0.00 0.00 67 1014.0
20220627085824 64 144 0.0 2.6 0.00 0.00 0.00 67 1014.1
20220627085722 64 155 0.0 0.9 0.00 0.00 0.00 67 1014.0
20220627085623 64 158 0.0 0.9 0.00 0.00 0.00 67 1014.0
20220627085522 64 158 0.0 0.9 0.00 0.00 0.00 66 1014.0
20220627085422 64 141 0.0 0.9 0.00 0.00 0.00 66 1014.0
20220627085322 65 141 0.0 0.9 0.00 0.00 0.00 66 1014.0
20220627085224 65 205 0.0 0.9 0.00 0.00 0.00 66 1014.0
20220627085121 65 204 0.0 0.9 0.00 0.00 0.00 66 1013.9
20220627085023 65 204 0.0 0.9 0.00 0.00 0.00 66 1014.0
20220627084922 65 205 0.0 1.7 0.00 0.00 0.00 66 1014.0
20220627084823 65 205 0.0 1.7 0.00 0.00 0.00 66 1013.9
20220627084722 65 205 0.0 1.7 0.00 0.00 0.00 66 1014.0
20220627084621 65 204 0.0 1.7 0.00 0.00 0.00 65 1014.0
20220627084522 65 195 0.0 2.6 0.00 0.00 0.00 65 1013.9
20220627084418 65 223 0.9 2.6 0.00 0.00 0.00 65 1014.0
20220627084317 65 222 0.9 2.6 0.00 0.00 0.00 65 1014.0
20220627084217 65 200 0.9 2.6 0.00 0.00 0.00 65 1014.0
20220627084118 65 225 0.9 2.6 0.00 0.00 0.00 65 1014.0
20220627084018 65 225 0.9 2.6 0.00 0.00 0.00 65 1014.0
20220627083918 65 167 0.0 2.6 0.00 0.00 0.00 66 1014.0
20220627083817 65 159 0.0 2.6 0.00 0.00 0.00 65 1014.0
20220627083716 65 159 0.0 2.6 0.00 0.00 0.00 65 1014.0
20220627083641 65 160 0.0 2.6 0.00 0.00 0.00 65 1013.9
20220627083616 65 158 0.0 2.6 0.00 0.00 0.00 65 1013.9
20220627083516 65 129 0.0 1.7 0.00 0.00 0.00 65 1014.0
20220627083419 65 222 0.0 1.7 0.00 0.00 0.00 65 1014.0
20220627083317 65 224 0.0 2.6 0.00 0.00 0.00 65 1014.0
20220627083217 65 224 0.9 5.2 0.00 0.00 0.00 65 1014.0
20220627083116 65 224 0.9 5.2 0.00 0.00 0.00 65 1013.9
20220627083016 65 224 0.9 5.2 0.00 0.00 0.00 65 1014.0
20220627082916 65 226 0.9 5.2 0.00 0.00 0.00 64 1014.0
20220627082816 65 226 0.9 5.2 0.00 0.00 0.00 64 1013.9
20220627082716 65 226 0.9 5.2 0.00 0.00 0.00 64 1014.0
20220627082637 65 222 1.7 5.2 0.00 0.00 0.00 64 1013.9
20220627082613 65 232 1.7 5.2 0.00 0.00 0.00 64 1013.9
20220627082515 65 212 1.7 5.2 0.00 0.00 0.00 64 1013.9
20220627082414 65 179 1.7 5.2 0.00 0.00 0.00 64 1013.9
20220627082313 65 188 1.7 5.2 0.00 0.00 0.00 64 1014.0
20220627082214 65 138 0.9 4.3 0.00 0.00 0.00 65 1014.0
20220627082136 65 228 0.9 2.6 0.00 0.00 0.00 65 1014.0
20220627082113 65 181 0.9 2.6 0.00 0.00 0.00 65 1014.0
20220627082014 65 180 0.9 2.6 0.00 0.00 0.00 65 1013.9
20220627081914 65 224 0.9 2.6 0.00 0.00 0.00 65 1014.0
20220627081814 65 214 0.9 2.6 0.00 0.00 0.00 65 1014.0
20220627081714 65 219 0.9 2.6 0.00 0.00 0.00 66 1014.0
20220627081635 65 173 0.0 2.6 0.00 0.00 0.00 66 1014.0
20220627081614 65 190 0.0 2.6 0.00 0.00 0.00 66 1014.0
20220627081514 65 193 0.0 1.7 0.00 0.00 0.00 66 1014.0
20220627081415 65 116 0.0 1.7 0.00 0.00 0.00 66 1014.0
20220627081314 65 133 0.0 0.9 0.00 0.00 0.00 66 1013.9
20220627081214 65 191 0.0 0.9 0.00 0.00 0.00 66 1014.0
20220627081135 66 191 0.0 0.9 0.00 0.00 0.00 65 1013.9
20220627081114 66 212 0.0 0.9 0.00 0.00 0.00 65 1013.9
20220627081014 66 212 0.0 0.9 0.00 0.00 0.00 65 1013.9
20220627080913 66 214 0.0 0.9 0.00 0.00 0.00 65 1013.9
20220627080818 66 214 0.0 0.9 0.00 0.00 0.00 65 1013.9
20220627080712 66 214 0.0 0.9 0.00 0.00 0.00 65 1013.8
20220627080611 66 214 0.0 0.9 0.00 0.00 0.00 65 1013.8
20220627080512 66 214 0.0 0.9 0.00 0.00 0.00 65 1013.8
20220627080412 66 214 0.0 1.7 0.00 0.00 0.00 65 1013.8
20220627080311 66 214 0.0 2.6 0.00 0.00 0.00 65 1013.8
20220627080212 66 193 0.0 2.6 0.00 0.00 0.00 64 1013.8
20220627080146 66 193 0.0 2.6 0.00 0.00 0.00 64 1013.8
20220627080112 66 193 0.0 2.6 0.00 0.00 0.00 64 1013.8
20220627080012 66 193 0.0 2.6 0.00 0.00 0.00 64 1013.8
20220627075912 66 193 0.9 2.6 0.00 0.00 0.00 64 1013.9
20220627075813 66 193 0.9 2.6 0.00 0.00 0.00 64 1013.9
20220627075711 66 231 0.9 2.6 0.00 0.00 0.00 64 1013.9
20220627075612 66 231 0.9 2.6 0.00 0.00 0.00 64 1013.9
20220627075512 66 231 0.9 2.6 0.00 0.00 0.00 64 1013.8
20220627075412 66 235 0.9 2.6 0.00 0.00 0.00 64 1013.8
20220627075312 66 207 0.9 2.6 0.00 0.00 0.00 64 1013.9
20220627075212 66 219 0.9 2.6 0.00 0.00 0.00 64 1013.9
20220627075132 66 220 0.9 2.6 0.00 0.00 0.00 64 1013.8
20220627075113 66 219 0.9 2.6 0.00 0.00 0.00 64 1013.8
20220627075012 66 212 0.9 2.6 0.00 0.00 0.00 64 1013.8
20220627074913 66 212 0.9 2.6 0.00 0.00 0.00 64 1013.8
20220627074811 66 195 0.9 2.6 0.00 0.00 0.00 64 1013.8
20220627074709 66 239 0.9 2.6 0.00 0.00 0.00 64 1013.9
20220627074635 66 231 0.9 2.6 0.00 0.00 0.00 64 1013.9
20220627074610 66 235 0.9 2.6 0.00 0.00 0.00 64 1013.9
20220627074510 66 195 0.0 1.7 0.00 0.00 0.00 65 1013.9
20220627074410 66 158 0.0 1.7 0.00 0.00 0.00 64 1013.9
20220627074309 66 153 0.0 1.7 0.00 0.00 0.00 64 1013.9
20220627074210 66 194 0.9 2.6 0.00 0.00 0.00 64 1013.9
20220627074128 66 190 0.9 2.6 0.00 0.00 0.00 64 1013.9
20220627074110 66 220 0.9 2.6 0.00 0.00 0.00 64 1013.9
20220627074010 66 215 0.9 2.6 0.00 0.00 0.00 64 1013.9
20220627073910 66 200 0.0 2.6 0.00 0.00 0.00 64 1013.9
20220627073810 67 235 0.0 2.6 0.00 0.00 0.00 64 1013.9
20220627073710 67 162 0.9 2.6 0.00 0.00 0.00 64 1013.9
20220627073629 67 167 0.0 2.6 0.00 0.00 0.00 64 1013.9
20220627073611 67 166 0.0 2.6 0.00 0.00 0.00 64 1013.8
20220627073510 67 222 0.0 2.6 0.00 0.00 0.00 64 1013.8
20220627073409 67 232 0.0 2.6 0.00 0.00 0.00 64 1013.8
20220627073309 67 222 0.0 2.6 0.00 0.00 0.00 64 1013.8
20220627073211 67 226 0.9 2.6 0.00 0.00 0.00 64 1013.8
20220627073127 67 229 0.9 2.6 0.00 0.00 0.00 64 1013.8
20220627073110 67 240 0.9 2.6 0.00 0.00 0.00 64 1013.8
20220627073008 67 225 0.9 2.6 0.00 0.00 0.00 64 1013.8
20220627072908 67 226 0.9 2.6 0.00 0.00 0.00 64 1013.9
20220627072808 67 233 0.9 2.6 0.00 0.00 0.00 64 1013.9
20220627072707 67 231 0.9 2.6 0.00 0.00 0.00 64 1013.8
20220627072625 67 218 0.9 2.6 0.00 0.00 0.00 64 1013.8
20220627072609 67 224 0.9 2.6 0.00 0.00 0.00 64 1013.8
20220627072508 66 224 0.9 2.6 0.00 0.00 0.00 64 1013.8
20220627072408 66 224 0.9 2.6 0.00 0.00 0.00 64 1013.8
20220627072309 66 233 0.9 2.6 0.00 0.00 0.00 64 1013.8
20220627072208 66 193 0.0 2.6 0.00 0.00 0.00 64 1013.8
20220627072126 66 211 0.0 2.6 0.00 0.00 0.00 64 1013.8
20220627072109 66 225 0.0 2.6 0.00 0.00 0.00 64 1013.8
20220627072008 66 219 0.0 2.6 0.00 0.00 0.00 64 1013.8
20220627071907 66 195 0.0 0.9 0.00 0.00 0.00 65 1013.8
20220627071807 66 210 0.0 0.9 0.00 0.00 0.00 65 1013.8
20220627071708 66 210 0.0 0.9 0.00 0.00 0.00 65 1013.8
20220627071608 66 210 0.0 0.9 0.00 0.00 0.00 65 1013.8
20220627071508 66 98 0.0 0.0 0.00 0.00 0.00 65 1013.8
20220627071407 66 92 0.0 0.0 0.00 0.00 0.00 64 1013.8
20220627071308 66 91 0.0 0.0 0.00 0.00 0.00 64 1013.8
20220627071210 66 92 0.0 0.0 0.00 0.00 0.00 64 1013.8
20220627071124 66 91 0.0 0.0 0.00 0.00 0.00 63 1013.8
20220627071108 66 91 0.0 0.0 0.00 0.00 0.00 63 1013.7
20220627071007 66 91 0.0 0.0 0.00 0.00 0.00 64 1013.8
20220627070906 66 91 0.0 0.0 0.00 0.00 0.00 64 1013.7
20220627070806 66 91 0.0 0.0 0.00 0.00 0.00 64 1013.7
20220627070706 66 92 0.0 0.0 0.00 0.00 0.00 64 1013.7
20220627070623 67 91 0.0 0.0 0.00 0.00 0.00 64 1013.7
20220627070606 67 92 0.0 0.0 0.00 0.00 0.00 64 1013.8
20220627070506 67 92 0.0 0.0 0.00 0.00 0.00 63 1013.8
20220627070407 67 92 0.0 0.0 0.00 0.00 0.00 62 1013.8
20220627070307 67 91 0.0 0.0 0.00 0.00 0.00 63 1013.8
20220627070206 67 91 0.0 0.0 0.00 0.00 0.00 62 1013.7
20220627070124 67 91 0.0 0.0 0.00 0.00 0.00 62 1013.7
20220627070107 67 92 0.0 0.0 0.00 0.00 0.00 62 1013.8
20220627070006 67 92 0.0 0.0 0.00 0.00 0.00 62 1013.8
20220627065905 67 91 0.0 0.0 0.00 0.00 0.00 62 1013.7
20220627065806 67 91 0.0 0.0 0.00 0.00 0.00 61 1013.7
20220627065700 68 91 0.0 0.0 0.00 0.00 0.00 61 1013.7
20220627065621 68 92 0.0 0.0 0.00 0.00 0.00 61 1013.7
20220627065601 68 92 0.0 0.0 0.00 0.00 0.00 61 1013.7
20220627065500 68 91 0.0 0.0 0.00 0.00 0.00 61 1013.7
20220627065400 68 91 0.0 0.0 0.00 0.00 0.00 60 1013.7
20220627065300 68 92 0.0 0.0 0.00 0.00 0.00 60 1013.7
20220627065159 68 91 0.0 0.0 0.00 0.00 0.00 60 1013.7
20220627065115 68 91 0.0 0.0 0.00 0.00 0.00 60 1013.7
20220627065058 68 92 0.0 0.0 0.00 0.00 0.00 60 1013.7
20220627064958 69 91 0.0 0.0 0.00 0.00 0.00 59 1013.7
20220627064856 69 92 0.0 1.7 0.00 0.00 0.00 59 1013.7
20220627064756 69 91 0.9 1.7 0.00 0.00 0.00 59 1013.8
20220627064648 69 92 0.9 1.7 0.00 0.00 0.00 58 1013.7
20220627064610 69 92 0.9 1.7 0.00 0.00 0.00 58 1013.7
20220627064549 69 91 0.9 1.7 0.00 0.00 0.00 58 1013.7
20220627064449 69 91 0.9 1.7 0.00 0.00 0.00 58 1013.7
20220627064352 69 91 0.9 1.7 0.00 0.00 0.00 58 1013.7
20220627064248 69 91 0.9 1.7 0.00 0.00 0.00 58 1013.7
20220627064146 69 91 0.9 1.7 0.00 0.00 0.00 58 1013.8
20220627064104 69 92 0.9 1.7 0.00 0.00 0.00 58 1013.8
20220627064046 69 92 0.9 1.7 0.00 0.00 0.00 58 1013.8
20220627063946 69 91 0.9 1.7 0.00 0.00 0.00 58 1013.8
20220627063847 69 94 0.0 1.7 0.00 0.00 0.00 58 1013.9
20220627063743 69 94 0.0 1.7 0.00 0.00 0.00 58 1013.9
20220627063642 69 94 0.0 1.7 0.00 0.00 0.00 58 1013.8
20220627063557 69 130 0.0 0.9 0.00 0.00 0.00 58 1013.8
20220627063541 69 177 0.0 0.9 0.00 0.00 0.00 58 1013.8
20220627063441 69 210 0.0 0.0 0.00 0.00 0.00 57 1013.8
20220627063338 70 210 0.0 0.0 0.00 0.00 0.00 57 1013.7
20220627063238 70 210 0.0 0.0 0.00 0.00 0.00 56 1013.7
20220627063134 70 210 0.0 0.0 0.00 0.00 0.00 56 1013.6
20220627063052 70 210 0.0 0.0 0.00 0.00 0.00 56 1013.7
20220627063036 70 210 0.0 0.9 0.00 0.00 0.00 56 1013.7
20220627062934 70 210 0.0 1.7 0.00 0.00 0.00 56 1013.7
20220627062833 70 210 0.0 2.6 0.00 0.00 0.00 56 1013.6
20220627062731 70 210 0.0 2.6 0.00 0.00 0.00 56 1013.6
20220627062632 71 210 0.9 2.6 0.00 0.00 0.00 56 1013.6
20220627062528 71 210 0.9 2.6 0.00 0.00 0.00 56 1013.7
20220627062428 71 210 0.9 3.5 0.00 0.00 0.00 55 1013.7
20220627062326 71 210 0.9 4.3 0.00 0.00 0.00 55 1013.7
20220627062225 71 210 0.9 4.3 0.00 0.00 0.00 55 1013.7
20220627062120 71 210 0.9 4.3 0.00 0.00 0.00 55 1013.7
20220627062039 71 210 0.9 4.3 0.00 0.00 0.00 55 1013.7
20220627062019 71 172 0.9 4.3 0.00 0.00 0.00 55 1013.7
20220627061919 71 222 0.9 4.3 0.00 0.00 0.00 55 1013.7
20220627061818 71 217 0.9 4.3 0.00 0.00 0.00 55 1013.7
20220627061718 71 211 0.9 4.3 0.00 0.00 0.00 55 1013.7
20220627061616 71 231 0.9 4.3 0.00 0.00 0.00 55 1013.7
20220627061535 71 136 0.9 4.3 0.00 0.00 0.00 55 1013.7
20220627061519 71 137 0.9 4.3 0.00 0.00 0.00 55 1013.7
20220627061415 71 198 0.9 4.3 0.00 0.00 0.00 55 1013.7
20220627061314 71 207 0.9 3.5 0.00 0.00 0.00 55 1013.7
20220627061212 71 238 0.9 3.5 0.00 0.00 0.00 55 1013.7
20220627061108 71 238 0.9 3.5 0.00 0.00 0.00 55 1013.7
20220627061028 71 219 0.9 3.5 0.00 0.00 0.00 55 1013.7
20220627061006 71 214 0.9 3.5 0.00 0.00 0.00 55 1013.6
20220627060907 71 213 0.0 3.5 0.00 0.00 0.00 55 1013.7
20220627060806 71 210 0.0 3.5 0.00 0.00 0.00 55 1013.7
20220627060706 71 148 0.0 3.5 0.00 0.00 0.00 55 1013.7
20220627060606 71 148 0.0 3.5 0.00 0.00 0.00 55 1013.7
20220627060522 71 148 0.0 3.5 0.00 0.00 0.00 55 1013.7
20220627060500 71 148 0.0 3.5 0.00 0.00 0.00 55 1013.7
20220627060400 71 141 0.0 5.2 0.00 0.00 0.00 55 1013.7
20220627060301 71 136 0.0 5.2 0.00 0.00 0.00 55 1013.6
20220627060200 71 103 0.9 5.2 0.00 0.00 0.00 54 1013.6
20220627060100 71 103 0.9 5.2 0.00 0.00 0.00 54 1013.6
20220627060016 71 103 0.9 5.2 0.00 0.00 0.00 54 1013.6
20220627055955 71 103 0.9 5.2 0.00 0.00 0.00 54 1013.6
20220627055854 72 117 0.9 5.2 0.00 0.00 0.00 54 1013.5
20220627055754 72 156 0.9 5.2 0.00 0.00 0.00 54 1013.5
20220627055655 72 217 0.9 5.2 0.00 0.00 0.00 54 1013.5
20220627055554 72 250 0.9 5.2 0.00 0.00 0.00 54 1013.5
20220627055510 72 250 0.9 5.2 0.00 0.00 0.00 54 1013.5
20220627055452 72 250 0.9 5.2 0.00 0.00 0.00 53 1013.5
20220627055353 72 277 0.9 5.2 0.00 0.00 0.00 53 1013.5
20220627055250 72 277 0.9 5.2 0.00 0.00 0.00 54 1013.5
20220627055148 72 217 0.9 5.2 0.00 0.00 0.00 53 1013.6
20220627055048 72 256 0.9 5.2 0.00 0.00 0.00 53 1013.5
20220627055004 72 256 0.9 5.2 0.00 0.00 0.00 53 1013.5
20220627054948 72 256 0.9 5.2 0.00 0.00 0.00 53 1013.5
20220627054844 72 260 0.9 5.2 0.00 0.00 0.00 53 1013.5
20220627054744 72 260 0.9 5.2 0.00 0.00 0.00 53 1013.5
20220627054641 72 158 0.9 5.2 0.00 0.00 0.00 53 1013.5
20220627054545 73 205 0.9 5.2 0.00 0.00 0.00 52 1013.5
20220627054457 73 233 0.9 5.2 0.00 0.00 0.00 52 1013.5
20220627054441 73 304 0.9 5.2 0.00 0.00 0.00 52 1013.5
20220627054340 73 243 0.9 5.2 0.00 0.00 0.00 52 1013.5
20220627054239 73 226 0.9 5.2 0.00 0.00 0.00 52 1013.5
20220627054136 73 226 0.9 5.2 0.00 0.00 0.00 52 1013.5
20220627054036 73 229 0.9 3.5 0.00 0.00 0.00 52 1013.5
20220627053951 73 253 0.9 3.5 0.00 0.00 0.00 52 1013.5
20220627053934 73 228 0.9 3.5 0.00 0.00 0.00 51 1013.5
20220627053834 73 233 0.9 5.2 0.00 0.00 0.00 51 1013.5
20220627053733 73 253 0.9 5.2 0.00 0.00 0.00 51 1013.5
20220627053632 73 253 1.7 7.0 0.00 0.00 0.00 51 1013.5
20220627053526 73 269 1.7 7.0 0.00 0.00 0.00 51 1013.5
20220627053445 73 270 1.7 7.0 0.00 0.00 0.00 51 1013.5
20220627053425 74 269 1.7 7.0 0.00 0.00 0.00 51 1013.5
20220627053324 74 254 1.7 7.0 0.00 0.00 0.00 51 1013.5
20220627053224 74 255 0.9 7.0 0.00 0.00 0.00 51 1013.5
20220627053124 74 250 1.7 7.0 0.00 0.00 0.00 51 1013.5
20220627053018 74 282 1.7 7.0 0.00 0.00 0.00 51 1013.5
20220627052941 74 263 1.7 7.0 0.00 0.00 0.00 51 1013.5
20220627052918 74 203 1.7 7.0 0.00 0.00 0.00 51 1013.5
20220627052819 74 221 1.7 7.0 0.00 0.00 0.00 51 1013.5
20220627052718 74 212 1.7 7.0 0.00 0.00 0.00 51 1013.5
20220627052618 74 207 0.9 4.3 0.00 0.00 0.00 51 1013.5
20220627052518 74 224 1.7 4.3 0.00 0.00 0.00 51 1013.5
20220627052434 74 225 1.7 4.3 0.00 0.00 0.00 51 1013.5
20220627052416 74 204 1.7 4.3 0.00 0.00 0.00 51 1013.5
20220627052316 74 225 1.7 4.3 0.00 0.00 0.00 51 1013.5
20220627052214 74 226 1.7 4.3 0.00 0.00 0.00 51 1013.5
20220627052113 74 238 1.7 4.3 0.00 0.00 0.00 50 1013.4
20220627052008 75 248 1.7 4.3 0.00 0.00 0.00 50 1013.5
20220627051927 75 228 1.7 4.3 0.00 0.00 0.00 50 1013.5
20220627051908 75 193 1.7 4.3 0.00 0.00 0.00 50 1013.5
20220627051810 75 243 1.7 4.3 0.00 0.00 0.00 50 1013.4
20220627051708 75 233 1.7 4.3 0.00 0.00 0.00 50 1013.4
20220627051606 75 205 1.7 4.3 0.00 0.00 0.00 50 1013.4
20220627051501 75 212 1.7 4.3 0.00 0.00 0.00 49 1013.4
20220627051422 75 155 1.7 4.3 0.00 0.00 0.00 49 1013.4
20220627051402 75 198 1.7 4.3 0.00 0.00 0.00 49 1013.3
20220627051303 75 210 0.9 3.5 0.00 0.00 0.00 49 1013.3
20220627051202 75 216 0.9 3.5 0.00 0.00 0.00 48 1013.3
20220627051100 76 236 0.9 3.5 0.00 0.00 0.00 48 1013.3
20220627050956 76 225 0.9 3.5 0.00 0.00 0.00 48 1013.3
20220627050915 76 235 0.9 3.5 0.00 0.00 0.00 48 1013.3
20220627050855 76 211 0.9 3.5 0.00 0.00 0.00 48 1013.3
20220627050754 76 231 0.9 3.5 0.00 0.00 0.00 47 1013.3
20220627050654 76 183 0.9 3.5 0.00 0.00 0.00 48 1013.2
20220627050554 76 229 0.9 3.5 0.00 0.00 0.00 47 1013.2
20220627050450 76 218 0.9 3.5 0.00 0.00 0.00 47 1013.2
20220627050410 76 231 0.9 3.5 0.00 0.00 0.00 47 1013.2
20220627050348 76 247 0.9 3.5 0.00 0.00 0.00 47 1013.2
20220627050250 76 246 0.9 3.5 0.00 0.00 0.00 47 1013.2
20220627050148 76 195 0.9 4.3 0.00 0.00 0.00 47 1013.2
20220627050051 76 181 0.9 4.3 0.00 0.00 0.00 47 1013.2
20220627045944 76 221 0.9 4.3 0.00 0.00 0.00 47 1013.2
20220627045904 76 243 0.9 4.3 0.00 0.00 0.00 47 1013.2
20220627045849 76 243 0.9 4.3 0.00 0.00 0.00 47 1013.2
20220627045744 77 239 1.7 5.2 0.00 0.00 0.00 46 1013.1
20220627045645 77 260 1.7 5.2 0.00 0.00 0.00 46 1013.2
20220627045542 77 224 1.7 7.8 0.00 0.00 0.00 46 1013.1
20220627045437 77 240 2.6 7.8 0.00 0.00 0.00 46 1013.1
20220627045358 77 222 2.6 7.8 0.00 0.00 0.00 46 1013.1
20220627045336 77 277 2.6 7.8 0.00 0.00 0.00 46 1013.1
20220627045236 77 195 2.6 7.8 0.00 0.00 0.00 46 1013.1
20220627045139 77 252 2.6 7.8 0.00 0.00 0.00 46 1013.1
20220627045036 77 271 2.6 7.8 0.00 0.00 0.00 46 1013.1
20220627044932 77 243 2.6 7.8 0.00 0.00 0.00 46 1013.1
20220627044853 77 211 2.6 7.8 0.00 0.00 0.00 46 1013.1
20220627044833 77 284 2.6 7.8 0.00 0.00 0.00 46 1013.1
20220627044732 77 210 2.6 7.8 0.00 0.00 0.00 46 1013.0
20220627044632 78 225 2.6 7.8 0.00 0.00 0.00 46 1013.1
20220627044532 78 214 1.7 7.0 0.00 0.00 0.00 46 1013.1
20220627044424 78 185 1.7 7.0 0.00 0.00 0.00 46 1013.1
20220627044346 78 203 1.7 7.0 0.00 0.00 0.00 46 1013.0
20220627044324 78 210 1.7 7.0 0.00 0.00 0.00 46 1013.0
20220627044224 78 240 1.7 7.0 0.00 0.00 0.00 46 1013.0
20220627044124 78 229 1.7 7.0 0.00 0.00 0.00 46 1013.1
20220627044024 78 220 1.7 7.0 0.00 0.00 0.00 46 1013.1
20220627043920 78 233 1.7 5.2 0.00 0.00 0.00 46 1013.1
20220627043840 78 219 1.7 5.2 0.00 0.00 0.00 46 1013.0
20220627043818 78 250 1.7 5.2 0.00 0.00 0.00 46 1013.0
20220627043719 78 222 1.7 4.3 0.00 0.00 0.00 46 1013.0
20220627043619 79 221 0.9 4.3 0.00 0.00 0.00 46 1013.0
20220627043519 79 226 1.7 4.3 0.00 0.00 0.00 45 1013.0
20220627043413 79 217 1.7 5.2 0.00 0.00 0.00 45 1013.1
20220627043333 79 243 1.7 5.2 0.00 0.00 0.00 45 1013.0
20220627043312 79 260 1.7 5.2 0.00 0.00 0.00 45 1013.0
20220627043212 79 212 1.7 5.2 0.00 0.00 0.00 45 1013.0
20220627043112 79 224 1.7 5.2 0.00 0.00 0.00 45 1013.0
20220627043012 79 224 2.6 7.0 0.00 0.00 0.00 45 1013.0
20220627042906 79 224 2.6 7.0 0.00 0.00 0.00 45 1013.0
20220627042828 79 221 2.6 7.0 0.00 0.00 0.00 44 1013.0
20220627042806 79 222 2.6 7.0 0.00 0.00 0.00 44 1012.9
20220627042707 79 236 2.6 7.0 0.00 0.00 0.00 44 1012.9
20220627042607 80 224 2.6 7.0 0.00 0.00 0.00 44 1012.9
20220627042506 80 208 2.6 7.0 0.00 0.00 0.00 44 1012.9
20220627042401 80 172 2.6 7.0 0.00 0.00 0.00 44 1012.9
20220627042321 80 229 2.6 7.0 0.00 0.00 0.00 44 1012.9
20220627042300 80 222 2.6 7.0 0.00 0.00 0.00 44 1012.9
20220627042201 80 250 2.6 7.0 0.00 0.00 0.00 44 1012.9
20220627042100 80 242 1.7 7.0 0.00 0.00 0.00 43 1012.9
20220627042000 80 215 1.7 7.0 0.00 0.00 0.00 43 1012.9
20220627041854 80 169 1.7 7.0 0.00 0.00 0.00 43 1012.9
20220627041815 80 222 1.7 7.0 0.00 0.00 0.00 43 1012.9
20220627041754 80 215 1.7 7.0 0.00 0.00 0.00 43 1012.9
20220627041654 80 226 1.7 7.0 0.00 0.00 0.00 43 1012.9
20220627041554 80 200 0.9 7.0 0.00 0.00 0.00 43 1012.9
20220627041454 80 199 0.9 6.1 0.00 0.00 0.00 43 1012.9
20220627041353 81 248 0.9 6.1 0.00 0.00 0.00 43 1012.9
20220627041309 81 212 0.9 6.1 0.00 0.00 0.00 43 1012.9
20220627041252 81 212 0.9 6.1 0.00 0.00 0.00 43 1012.9
20220627041153 81 212 1.7 7.8 0.00 0.00 0.00 42 1012.8
20220627041051 81 222 1.7 7.8 0.00 0.00 0.00 42 1012.9
20220627040948 81 214 1.7 7.8 0.00 0.00 0.00 42 1012.8
20220627040846 81 177 1.7 7.8 0.00 0.00 0.00 42 1012.9
20220627040803 81 200 1.7 7.8 0.00 0.00 0.00 42 1012.9
20220627040747 81 200 1.7 7.8 0.00 0.00 0.00 42 1012.9
20220627040644 81 224 2.6 7.8 0.00 0.00 0.00 41 1012.9
20220627040544 81 203 2.6 9.6 0.00 0.00 0.00 41 1012.8
20220627040445 82 243 2.6 9.6 0.00 0.00 0.00 41 1012.8
20220627040340 82 233 3.5 9.6 0.00 0.00 0.00 41 1012.7
20220627040258 82 257 3.5 9.6 0.00 0.00 0.00 41 1012.8
20220627040238 82 214 3.5 9.6 0.00 0.00 0.00 41 1012.8
20220627040139 82 198 3.5 9.6 0.00 0.00 0.00 41 1012.8
20220627040039 82 256 3.5 9.6 0.00 0.00 0.00 40 1012.7
20220627035938 82 225 3.5 9.6 0.00 0.00 0.00 40 1012.7
20220627035833 82 243 3.5 9.6 0.00 0.00 0.00 40 1012.7
20220627035752 82 246 3.5 9.6 0.00 0.00 0.00 40 1012.7
20220627035731 82 231 3.5 9.6 0.00 0.00 0.00 40 1012.7
20220627035631 82 193 3.5 9.6 0.00 0.00 0.00 40 1012.7
20220627035530 82 210 3.5 9.6 0.00 0.00 0.00 39 1012.7
20220627035430 82 217 3.5 9.6 0.00 0.00 0.00 39 1012.7
20220627035325 83 224 2.6 7.0 0.00 0.00 0.00 39 1012.7
20220627035245 83 229 2.6 7.0 0.00 0.00 0.00 39 1012.7
20220627035224 83 222 2.6 7.0 0.00 0.00 0.00 39 1012.7
20220627035124 83 162 2.6 7.0 0.00 0.00 0.00 39 1012.6
20220627035025 83 193 2.6 7.0 0.00 0.00 0.00 39 1012.6
20220627034931 83 195 2.6 7.0 0.00 0.00 0.00 38 1012.6
20220627034824 83 253 2.6 7.0 0.00 0.00 0.00 38 1012.6
20220627034741 83 207 2.6 7.0 0.00 0.00 0.00 38 1012.6
20220627034728 83 219 2.6 7.0 0.00 0.00 0.00 38 1012.6
20220627034619 83 195 2.6 7.0 0.00 0.00 0.00 38 1012.6
20220627034521 83 233 2.6 7.0 0.00 0.00 0.00 38 1012.6
20220627034424 83 203 2.6 7.0 0.00 0.00 0.00 37 1012.6
20220627034317 83 197 2.6 8.7 0.00 0.00 0.00 37 1012.6
20220627034233 83 221 2.6 8.7 0.00 0.00 0.00 37 1012.5
20220627034226 84 256 2.6 8.7 0.00 0.00 0.00 37 1012.5
20220627034113 84 217 2.6 8.7 0.00 0.00 0.00 37 1012.5
20220627034013 84 242 2.6 8.7 0.00 0.00 0.00 37 1012.5
20220627033912 84 193 3.5 8.7 0.00 0.00 0.00 37 1012.5
20220627033806 84 248 3.5 9.6 0.00 0.00 0.00 37 1012.5
20220627033727 84 235 3.5 9.6 0.00 0.00 0.00 36 1012.5
20220627033706 84 180 3.5 9.6 0.00 0.00 0.00 36 1012.5
20220627033606 84 200 3.5 9.6 0.00 0.00 0.00 36 1012.5
20220627033507 84 250 3.5 9.6 0.00 0.00 0.00 36 1012.5
20220627033406 84 233 3.5 9.6 0.00 0.00 0.00 36 1012.5
20220627033300 85 238 3.5 9.6 0.00 0.00 0.00 36 1012.5
20220627033222 85 188 3.5 9.6 0.00 0.00 0.00 36 1012.5
20220627033200 85 228 3.5 9.6 0.00 0.00 0.00 36 1012.5
20220627033100 85 224 3.5 9.6 0.00 0.00 0.00 36 1012.5
20220627033000 85 236 3.5 9.6 0.00 0.00 0.00 36 1012.5
20220627032859 85 236 3.5 8.7 0.00 0.00 0.00 36 1012.5
20220627032754 85 217 3.5 8.7 0.00 0.00 0.00 36 1012.5
20220627032716 85 245 3.5 8.7 0.00 0.00 0.00 36 1012.5
20220627032654 85 239 2.6 8.7 0.00 0.00 0.00 36 1012.4
20220627032554 85 212 2.6 8.7 0.00 0.00 0.00 36 1012.5
20220627032454 85 211 2.6 7.8 0.00 0.00 0.00 36 1012.5
20220627032355 85 197 2.6 7.8 0.00 0.00 0.00 36 1012.5
20220627032250 85 214 2.6 7.8 0.00 0.00 0.00 36 1012.5
20220627032209 85 250 2.6 7.8 0.00 0.00 0.00 36 1012.5
20220627032151 85 211 2.6 7.8 0.00 0.00 0.00 36 1012.5
20220627032050 85 214 2.6 7.8 0.00 0.00 0.00 36 1012.5
20220627031951 86 245 2.6 7.8 0.00 0.00 0.00 36 1012.5
20220627031848 86 195 2.6 7.8 0.00 0.00 0.00 35 1012.4
20220627031742 86 188 2.6 7.8 0.00 0.00 0.00 35 1012.5
20220627031703 86 239 2.6 5.2 0.00 0.00 0.00 35 1012.5
20220627031642 86 180 2.6 7.0 0.00 0.00 0.00 35 1012.5
20220627031542 86 215 2.6 7.8 0.00 0.00 0.00 35 1012.5
20220627031442 86 170 2.6 7.8 0.00 0.00 0.00 35 1012.5
20220627031343 86 225 2.6 7.8 0.00 0.00 0.00 35 1012.5
20220627031240 86 212 2.6 7.8 0.00 0.00 0.00 34 1012.5
20220627031157 86 232 2.6 7.8 0.00 0.00 0.00 34 1012.5
20220627031140 86 203 2.6 7.8 0.00 0.00 0.00 34 1012.5
20220627031041 87 238 2.6 7.8 0.00 0.00 0.00 34 1012.5
20220627030938 87 259 2.6 7.8 0.00 0.00 0.00 34 1012.5
20220627030836 87 245 2.6 7.8 0.00 0.00 0.00 34 1012.5
20220627030733 87 198 2.6 7.8 0.00 0.00 0.00 33 1012.5
20220627030651 87 179 2.6 7.8 0.00 0.00 0.00 33 1012.4
20220627030630 87 211 2.6 7.0 0.00 0.00 0.00 33 1012.4
20220627030531 87 218 2.6 7.0 0.00 0.00 0.00 33 1012.4
20220627030430 87 240 2.6 7.0 0.00 0.00 0.00 33 1012.4
20220627030330 87 243 2.6 7.0 0.00 0.00 0.00 33 1012.5
20220627030224 87 238 2.6 7.0 0.00 0.00 0.00 33 1012.5
20220627030144 87 219 2.6 8.7 0.00 0.00 0.00 33 1012.5
20220627030127 87 200 2.6 8.7 0.00 0.00 0.00 33 1012.5
20220627030024 87 210 2.6 8.7 0.00 0.00 0.00 32 1012.5
20220627025925 87 174 2.6 8.7 0.00 0.00 0.00 32 1012.4
20220627025824 87 213 2.6 8.7 0.00 0.00 0.00 32 1012.4
20220627025720 87 215 3.5 8.7 0.00 0.00 0.00 32 1012.4
20220627025639 87 235 3.5 8.7 0.00 0.00 0.00 32 1012.4
20220627025619 87 228 3.5 8.7 0.00 0.00 0.00 32 1012.4
20220627025522 87 204 3.5 8.7 0.00 0.00 0.00 32 1012.4
20220627025419 88 250 3.5 8.7 0.00 0.00 0.00 32 1012.4
20220627025318 88 224 3.5 8.7 0.00 0.00 0.00 32 1012.4
20220627025217 88 228 3.5 8.7 0.00 0.00 0.00 32 1012.4
20220627025133 88 207 3.5 7.8 0.00 0.00 0.00 32 1012.4
20220627025113 88 215 3.5 7.8 0.00 0.00 0.00 31 1012.4
20220627025012 88 232 3.5 7.8 0.00 0.00 0.00 31 1012.4
20220627024913 88 201 3.5 7.8 0.00 0.00 0.00 31 1012.4
20220627024812 88 225 3.5 8.7 0.00 0.00 0.00 31 1012.4
20220627024707 88 235 3.5 8.7 0.00 0.00 0.00 31 1012.4
20220627024627 88 250 3.5 8.7 0.00 0.00 0.00 31 1012.4
20220627024606 88 224 3.5 8.7 0.00 0.00 0.00 31 1012.4
20220627024506 88 249 3.5 8.7 0.00 0.00 0.00 31 1012.4
20220627024406 88 232 3.5 8.7 0.00 0.00 0.00 31 1012.5
20220627024306 88 210 3.5 8.7 0.00 0.00 0.00 31 1012.4
20220627024200 89 187 3.5 8.7 0.00 0.00 0.00 31 1012.4
20220627024120 89 219 3.5 8.7 0.00 0.00 0.00 31 1012.4
20220627024100 89 236 3.5 8.7 0.00 0.00 0.00 31 1012.5
20220627024000 89 246 2.6 8.7 0.00 0.00 0.00 31 1012.4
20220627023901 89 232 3.5 8.7 0.00 0.00 0.00 31 1012.4
20220627023801 89 242 3.5 7.8 0.00 0.00 0.00 31 1012.4
20220627023654 89 229 2.6 7.8 0.00 0.00 0.00 31 1012.4
20220627023618 89 215 2.6 7.0 0.00 0.00 0.00 31 1012.4
20220627023554 89 264 2.6 7.0 0.00 0.00 0.00 30 1012.4
20220627023455 89 229 2.6 7.0 0.00 0.00 0.00 30 1012.4
20220627023354 89 212 2.6 7.0 0.00 0.00 0.00 30 1012.4
20220627023254 89 204 3.5 7.8 0.00 0.00 0.00 30 1012.4
20220627023148 89 228 3.5 7.8 0.00 0.00 0.00 30 1012.4
20220627023109 89 221 3.5 7.8 0.00 0.00 0.00 30 1012.4
20220627023048 89 219 3.5 7.8 0.00 0.00 0.00 29 1012.4
20220627022949 89 198 3.5 7.8 0.00 0.00 0.00 29 1012.4
20220627022849 89 204 3.5 7.8 0.00 0.00 0.00 29 1012.4
20220627022751 89 161 3.5 7.8 0.00 0.00 0.00 29 1012.4
20220627022643 90 197 3.5 7.8 0.00 0.00 0.00 28 1012.4
20220627022603 90 218 3.5 7.8 0.00 0.00 0.00 29 1012.4
20220627022542 90 228 3.5 7.8 0.00 0.00 0.00 28 1012.4
20220627022442 90 200 3.5 7.8 0.00 0.00 0.00 28 1012.4
20220627022342 90 181 3.5 7.8 0.00 0.00 0.00 28 1012.4
20220627022242 90 217 3.5 7.8 0.00 0.00 0.00 28 1012.4
20220627022138 90 255 2.6 7.8 0.00 0.00 0.00 28 1012.4
20220627022058 90 240 2.6 7.8 0.00 0.00 0.00 28 1012.4
20220627022038 90 242 2.6 7.8 0.00 0.00 0.00 28 1012.4
20220627021938 90 245 2.6 7.8 0.00 0.00 0.00 28 1012.4
20220627021839 91 225 2.6 7.8 0.00 0.00 0.00 28 1012.4
20220627021736 91 208 2.6 6.1 0.00 0.00 0.00 28 1012.4
20220627021630 91 214 2.6 6.1 0.00 0.00 0.00 28 1012.4
20220627021552 91 229 2.6 6.1 0.00 0.00 0.00 28 1012.4
20220627021531 91 219 2.6 6.1 0.00 0.00 0.00 28 1012.4
20220627021430 91 221 2.6 6.1 0.00 0.00 0.00 27 1012.4
20220627021331 91 205 1.7 6.1 0.00 0.00 0.00 28 1012.3
20220627021231 91 210 2.6 6.1 0.00 0.00 0.00 28 1012.3
20220627021129 91 211 2.6 6.1 0.00 0.00 0.00 28 1012.3
20220627021045 91 185 2.6 6.1 0.00 0.00 0.00 27 1012.3
20220627021027 91 212 2.6 6.1 0.00 0.00 0.00 27 1012.3
20220627020926 91 186 2.6 6.1 0.00 0.00 0.00 27 1012.3
20220627020826 91 115 2.6 6.1 0.00 0.00 0.00 27 1012.3
20220627020724 92 150 2.6 6.1 0.00 0.00 0.00 27 1012.4
20220627020622 92 219 2.6 6.1 0.00 0.00 0.00 27 1012.3
20220627020541 92 226 2.6 6.1 0.00 0.00 0.00 27 1012.3
20220627020521 92 183 2.6 6.1 0.00 0.00 0.00 27 1012.3
20220627020418 92 148 2.6 6.1 0.00 0.00 0.00 26 1012.3
20220627020318 92 194 2.6 6.1 0.00 0.00 0.00 26 1012.3
20220627020218 92 165 2.6 6.1 0.00 0.00 0.00 26 1012.3
20220627020114 92 236 2.6 6.1 0.00 0.00 0.00 26 1012.3
20220627020046 92 245 1.7 5.2 0.00 0.00 0.00 26 1012.3
20220627020015 92 214 1.7 5.2 0.00 0.00 0.00 26 1012.3
20220627015914 92 176 1.7 4.3 0.00 0.00 0.00 26 1012.3
20220627015814 92 217 1.7 4.3 0.00 0.00 0.00 26 1012.3
20220627015712 92 188 1.7 4.3 0.00 0.00 0.00 25 1012.2
20220627015606 92 148 1.7 6.1 0.00 0.00 0.00 25 1012.2
20220627015527 92 218 1.7 6.1 0.00 0.00 0.00 25 1012.2
20220627015506 92 250 1.7 6.1 0.00 0.00 0.00 24 1012.3
20220627015406 92 226 1.7 6.1 0.00 0.00 0.00 24 1012.3
20220627015307 92 246 0.9 6.1 0.00 0.00 0.00 24 1012.3
20220627015206 92 226 0.9 6.1 0.00 0.00 0.00 23 1012.3
20220627015100 92 208 0.9 6.1 0.00 0.00 0.00 23 1012.2
20220627015021 93 221 0.9 6.1 0.00 0.00 0.00 23 1012.2
20220627015001 93 221 0.9 6.1 0.00 0.00 0.00 23 1012.3
20220627014900 93 221 0.9 6.1 0.00 0.00 0.00 22 1012.2
20220627014800 93 187 0.9 6.1 0.00 0.00 0.00 22 1012.2
20220627014700 93 281 1.7 6.1 0.00 0.00 0.00 22 1012.2
20220627014556 93 239 1.7 7.8 0.00 0.00 0.00 22 1012.2
20220627014520 93 217 1.7 7.8 0.00 0.00 0.00 22 1012.2
20220627014456 93 221 1.7 7.8 0.00 0.00 0.00 22 1012.2
20220627014356 93 248 1.7 7.8 0.00 0.00 0.00 21 1012.2
20220627014256 93 280 1.7 7.8 0.00 0.00 0.00 21 1012.3
20220627014154 93 266 2.6 7.8 0.00 0.00 0.00 21 1012.2
20220627014050 93 263 2.6 11.3 0.00 0.00 0.00 21 1012.2
20220627014009 93 231 2.6 11.3 0.00 0.00 0.00 21 1012.2
20220627013948 93 235 2.6 11.3 0.00 0.00 0.00 21 1012.2
20220627013848 94 257 2.6 11.3 0.00 0.00 0.00 21 1012.3
20220627013749 94 176 2.6 11.3 0.00 0.00 0.00 22 1012.2
20220627013649 94 222 2.6 11.3 0.00 0.00 0.00 21 1012.2
20220627013543 94 260 1.7 11.3 0.00 0.00 0.00 21 1012.2
20220627013504 94 219 1.7 11.3 0.00 0.00 0.00 21 1012.2
20220627013442 94 212 1.7 11.3 0.00 0.00 0.00 21 1012.2
20220627013342 94 221 1.7 11.3 0.00 0.00 0.00 20 1012.2
20220627013242 94 219 1.7 11.3 0.00 0.00 0.00 21 1012.2
20220627013142 94 203 1.7 11.3 0.00 0.00 0.00 20 1012.2
20220627013039 94 192 0.9 7.8 0.00 0.00 0.00 22 1012.2
20220627012958 94 225 0.9 5.2 0.00 0.00 0.00 22 1012.2
20220627012937 94 169 0.9 5.2 0.00 0.00 0.00 22 1012.2
20220627012836 94 190 0.9 5.2 0.00 0.00 0.00 21 1012.2
20220627012736 94 233 0.9 5.2 0.00 0.00 0.00 21 1012.2
20220627012638 94 230 0.9 5.2 0.00 0.00 0.00 21 1012.2
20220627012534 94 278 0.9 4.3 0.00 0.00 0.00 20 1012.1
20220627012453 94 204 0.9 3.5 0.00 0.00 0.00 21 1012.1
20220627012430 94 226 0.9 3.5 0.00 0.00 0.00 21 1012.1
20220627012330 95 194 0.9 3.5 0.00 0.00 0.00 22 1012.1
20220627012230 95 247 0.9 3.5 0.00 0.00 0.00 22 1012.1
20220627012130 95 188 0.9 2.6 0.00 0.00 0.00 21 1012.1
20220627012029 95 243 0.9 8.7 0.00 0.00 0.00 21 1012.1
20220627011945 95 246 0.9 8.7 0.00 0.00 0.00 21 1012.0
20220627011928 95 297 0.9 8.7 0.00 0.00 0.00 21 1012.0
20220627011826 95 280 0.9 8.7 0.00 0.00 0.00 20 1012.0
20220627011727 95 284 0.9 8.7 0.00 0.00 0.00 22 1012.1
20220627011624 95 263 0.9 8.7 0.00 0.00 0.00 21 1012.1
20220627011524 95 127 0.9 8.7 0.00 0.00 0.00 22 1012.0
20220627011422 95 127 1.7 8.7 0.00 0.00 0.00 21 1012.1
20220627011322 95 127 1.7 8.7 0.00 0.00 0.00 21 1012.0
20220627011220 95 210 2.6 8.7 0.00 0.00 0.00 20 1012.0
20220627011117 95 229 2.6 8.7 0.00 0.00 0.00 20 1012.0
20220627011014 95 291 2.6 10.4 0.00 0.00 0.00 20 1012.0
20220627010933 95 236 2.6 10.4 0.00 0.00 0.00 20 1012.0
20220627010913 95 226 2.6 10.4 0.00 0.00 0.00 20 1012.0
20220627010812 95 232 2.6 10.4 0.00 0.00 0.00 20 1012.0
20220627010715 96 277 3.5 10.4 0.00 0.00 0.00 19 1012.1
20220627010614 96 270 3.5 10.4 0.00 0.00 0.00 19 1012.1
20220627010509 96 222 3.5 10.4 0.00 0.00 0.00 19 1012.1
20220627010428 96 217 3.5 10.4 0.00 0.00 0.00 19 1012.1
20220627010406 96 246 3.5 10.4 0.00 0.00 0.00 19 1012.1
20220627010307 96 150 2.6 10.4 0.00 0.00 0.00 19 1012.1
20220627010206 96 207 2.6 10.4 0.00 0.00 0.00 19 1012.0
20220627010106 96 195 2.6 10.4 0.00 0.00 0.00 19 1012.1
20220627010000 96 221 2.6 6.1 0.00 0.00 0.00 20 1012.1
20220627005921 96 238 2.6 6.1 0.00 0.00 0.00 19 1012.1
20220627005901 96 231 2.6 6.1 0.00 0.00 0.00 19 1012.1
20220627005801 96 219 1.7 6.1 0.00 0.00 0.00 19 1012.0
20220627005700 96 215 1.7 5.2 0.00 0.00 0.00 19 1012.1
20220627005600 96 226 1.7 5.2 0.00 0.00 0.00 19 1012.1
20220627005454 96 257 0.9 5.2 0.00 0.00 0.00 19 1012.1
20220627005415 96 239 0.9 5.2 0.00 0.00 0.00 19 1012.1
20220627005356 96 194 1.7 5.2 0.00 0.00 0.00 19 1012.1
20220627005254 96 204 1.7 5.2 0.00 0.00 0.00 19 1012.1
20220627005154 96 243 0.9 5.2 0.00 0.00 0.00 18 1012.1
20220627005054 96 229 0.9 5.2 0.00 0.00 0.00 19 1012.1
20220627004950 96 236 0.9 7.0 0.00 0.00 0.00 19 1012.1
20220627004909 96 238 0.9 7.0 0.00 0.00 0.00 19 1012.1
20220627004849 96 312 0.9 7.0 0.00 0.00 0.00 19 1012.1
20220627004752 96 240 0.9 7.0 0.00 0.00 0.00 19 1012.1
20220627004648 96 259 1.7 7.0 0.00 0.00 0.00 19 1012.1
20220627004548 96 233 1.7 7.0 0.00 0.00 0.00 19 1012.0
20220627004444 97 232 1.7 7.0 0.00 0.00 0.00 19 1012.1
20220627004403 97 232 1.7 7.0 0.00 0.00 0.00 18 1012.1
20220627004342 97 134 1.7 7.0 0.00 0.00 0.00 18 1012.1
20220627004242 97 222 1.7 7.0 0.00 0.00 0.00 18 1012.1
20220627004142 97 262 1.7 7.0 0.00 0.00 0.00 18 1012.1
20220627004042 97 221 1.7 7.0 0.00 0.00 0.00 19 1012.1
20220627003938 97 248 1.7 7.0 0.00 0.00 0.00 18 1012.1
20220627003858 97 193 1.7 7.0 0.00 0.00 0.00 18 1012.1
20220627003836 98 295 1.7 7.0 0.00 0.00 0.00 18 1012.1
20220627003736 98 305 1.7 6.1 0.00 0.00 0.00 18 1012.1
20220627003638 98 126 1.7 6.1 0.00 0.00 0.00 18 1012.1
20220627003537 98 242 1.7 7.0 0.00 0.00 0.00 18 1012.1
20220627003430 98 226 0.9 7.0 0.00 0.00 0.00 18 1012.1
20220627003330 98 267 0.9 7.0 0.00 0.00 0.00 18 1012.1
20220627003230 98 215 0.9 7.0 0.00 0.00 0.00 18 1012.1
20220627003131 98 174 0.9 7.0 0.00 0.00 0.00 18 1012.1
20220627003031 98 250 0.9 7.0 0.00 0.00 0.00 18 1012.1
20220627002929 98 215 0.9 7.0 0.00 0.00 0.00 18 1012.1
20220627002845 98 262 0.9 7.0 0.00 0.00 0.00 18 1012.1
20220627002825 98 173 0.9 7.0 0.00 0.00 0.00 18 1012.1
20220627002724 99 222 0.9 7.0 0.00 0.00 0.00 17 1012.0
20220627002625 99 171 0.9 5.2 0.00 0.00 0.00 18 1012.1
20220627002524 99 214 0.9 5.2 0.00 0.00 0.00 18 1012.1
20220627002423 99 214 1.7 5.2 0.00 0.00 0.00 18 1012.1
20220627002323 99 264 0.9 5.2 0.00 0.00 0.00 18 1012.1
20220627002222 99 240 0.9 5.2 0.00 0.00 0.00 18 1012.1
20220627002120 99 169 0.9 5.2 0.00 0.00 0.00 18 1012.1
20220627002017 99 204 0.9 5.2 0.00 0.00 0.00 17 1012.1
20220627001916 99 240 0.9 4.3 0.00 0.00 0.00 17 1012.1
20220627001833 99 161 0.9 4.3 0.00 0.00 0.00 17 1012.1
20220627001817 99 184 0.9 3.5 0.00 0.00 0.00 18 1012.1
20220627001718 99 219 0.9 5.2 0.00 0.00 0.00 17 1012.1
20220627001615 99 225 0.9 5.2 0.00 0.00 0.00 17 1012.1
20220627001515 99 186 0.9 6.1 0.00 0.00 0.00 17 1012.1
20220627001406 99 201 0.9 6.1 0.00 0.00 0.00 16 1012.1
20220627001307 99 201 0.9 6.1 0.00 0.00 0.00 16 1012.1
20220627001206 99 201 0.9 6.1 0.00 0.00 0.00 16 1012.1
20220627001106 99 232 1.7 7.0 0.00 0.00 0.00 16 1012.1
20220627001005 99 232 1.7 7.0 0.00 0.00 0.00 16 1012.1
20220627000901 99 246 1.7 7.0 0.00 0.00 0.00 15 1012.2
20220627000821 99 309 1.7 7.0 0.00 0.00 0.00 15 1012.2
20220627000800 99 236 2.6 7.0 0.00 0.00 0.00 15 1012.2
20220627000700 99 253 2.6 7.0 0.00 0.00 0.00 15 1012.2
20220627000601 99 226 2.6 9.6 0.00 0.00 0.00 15 1012.2
20220627000500 99 266 3.5 9.6 0.00 0.00 0.00 15 1012.1
20220627000356 99 309 3.5 9.6 0.00 0.00 0.00 15 1012.2
20220627000315 99 222 3.5 9.6 0.00 0.00 0.00 15 1012.2
20220627000254 99 255 3.5 9.6 0.00 0.00 0.00 15 1012.3
20220627000154 99 180 3.5 9.6 0.00 0.00 0.00 15 1012.2
20220627000055 99 200 3.5 9.6 0.00 0.00 0.00 15 1012.3
20220626235954 99 195 3.5 9.6 0.00 0.00 0.00 15 1012.2
20220626235849 99 200 3.5 9.6 0.00 0.00 0.00 14 1012.3
20220626235810 100 248 3.5 9.6 0.00 0.00 0.00 14 1012.3
20220626235748 100 217 3.5 9.6 0.00 0.00 0.00 14 1012.3
20220626235648 100 224 3.5 9.6 0.00 0.00 0.00 14 1012.3
20220626235549 100 240 2.6 8.7 0.00 0.00 0.00 14 1012.3
20220626235448 100 190 2.6 8.7 0.00 0.00 0.00 14 1012.3
20220626235344 100 257 2.6 8.7 0.00 0.00 0.00 13 1012.3
20220626235304 100 239 2.6 8.7 0.00 0.00 0.00 13 1012.3
20220626235244 100 242 2.6 8.7 0.00 0.00 0.00 14 1012.3
20220626235144 100 225 2.6 8.7 0.00 0.00 0.00 13 1012.3
20220626235044 100 190 2.6 8.7 0.00 0.00 0.00 13 1012.4
20220626234941 100 231 2.6 7.0 0.00 0.00 0.00 12 1012.4
20220626234839 100 142 2.6 7.0 0.00 0.00 0.00 14 1012.3
20220626234757 100 215 2.6 7.0 0.00 0.00 0.00 14 1012.4
20220626234736 100 231 2.6 7.0 0.00 0.00 0.00 13 1012.4
20220626234637 101 249 2.6 7.0 0.00 0.00 0.00 13 1012.4
20220626234536 101 212 1.7 7.0 0.00 0.00 0.00 14 1012.4
20220626234437 101 225 2.6 7.0 0.00 0.00 0.00 14 1012.4
20220626234333 101 221 1.7 7.0 0.00 0.00 0.00 15 1012.4
20220626234251 101 200 1.7 7.0 0.00 0.00 0.00 15 1012.4
20220626234232 101 221 1.7 7.0 0.00 0.00 0.00 14 1012.4
20220626234132 101 236 1.7 7.0 0.00 0.00 0.00 14 1012.4
20220626234032 101 235 1.7 7.0 0.00 0.00 0.00 15 1012.4
20220626233929 101 215 1.7 7.0 0.00 0.00 0.00 15 1012.4
20220626233827 101 302 1.7 7.0 0.00 0.00 0.00 16 1012.4
20220626233745 101 217 1.7 7.0 0.00 0.00 0.00 16 1012.5
20220626233724 101 217 1.7 7.0 0.00 0.00 0.00 15 1012.5
20220626233625 101 150 1.7 7.0 0.00 0.00 0.00 16 1012.5
20220626233524 101 236 1.7 7.0 0.00 0.00 0.00 15 1012.5
20220626233424 101 236 1.7 7.0 0.00 0.00 0.00 15 1012.5
20220626233318 101 219 1.7 7.0 0.00 0.00 0.00 15 1012.5
20220626233240 101 242 1.7 7.0 0.00 0.00 0.00 15 1012.5
20220626233218 101 226 1.7 7.0 0.00 0.00 0.00 15 1012.5
20220626233118 101 205 0.9 7.0 0.00 0.00 0.00 14 1012.5
20220626233018 101 253 0.9 5.2 0.00 0.00 0.00 14 1012.5
20220626232917 101 274 0.9 7.8 0.00 0.00 0.00 14 1012.5
20220626232815 101 233 0.9 7.8 0.00 0.00 0.00 14 1012.5
20220626232733 101 240 0.9 7.8 0.00 0.00 0.00 14 1012.5
20220626232715 101 200 0.9 7.8 0.00 0.00 0.00 14 1012.5
20220626232611 101 236 0.9 7.8 0.00 0.00 0.00 14 1012.6
20220626232512 101 229 0.9 7.8 0.00 0.00 0.00 14 1012.5
20220626232412 101 222 0.9 7.8 0.00 0.00 0.00 14 1012.5
20220626232306 101 277 0.9 7.8 0.00 0.00 0.00 14 1012.5
20220626232227 101 179 0.9 7.8 0.00 0.00 0.00 14 1012.5
20220626232207 101 225 0.9 7.8 0.00 0.00 0.00 14 1012.5
20220626232106 101 226 0.9 7.8 0.00 0.00 0.00 13 1012.6
20220626232007 101 283 0.9 7.8 0.00 0.00 0.00 13 1012.7
20220626231907 101 210 0.9 7.0 0.00 0.00 0.00 15 1012.6
20220626231802 101 218 0.9 7.0 0.00 0.00 0.00 14 1012.7
20220626231721 101 219 0.9 7.0 0.00 0.00 0.00 13 1012.7
20220626231701 101 219 0.9 7.0 0.00 0.00 0.00 14 1012.6
20220626231602 101 224 1.7 7.0 0.00 0.00 0.00 14 1012.7
20220626231500 101 297 1.7 8.7 0.00 0.00 0.00 14 1012.7
20220626231400 101 224 2.6 8.7 0.00 0.00 0.00 14 1012.7
20220626231256 101 239 2.6 10.4 0.00 0.00 0.00 14 1012.7
20220626231215 100 247 2.6 10.4 0.00 0.00 0.00 14 1012.7
20220626231154 100 208 2.6 10.4 0.00 0.00 0.00 14 1012.7
20220626231054 100 200 2.6 10.4 0.00 0.00 0.00 14 1012.7
20220626230954 100 214 2.6 10.4 0.00 0.00 0.00 15 1012.7
20220626230854 100 210 2.6 10.4 0.00 0.00 0.00 14 1012.7
20220626230751 100 262 2.6 10.4 0.00 0.00 0.00 14 1012.8
20220626230709 100 235 2.6 10.4 0.00 0.00 0.00 14 1012.8
20220626230648 100 215 2.6 10.4 0.00 0.00 0.00 14 1012.8
20220626230548 100 204 2.6 10.4 0.00 0.00 0.00 14 1012.8
20220626230448 100 214 2.6 10.4 0.00 0.00 0.00 14 1012.8
20220626230348 100 219 1.7 10.4 0.00 0.00 0.00 14 1012.8
20220626230244 100 190 1.7 7.8 0.00 0.00 0.00 14 1012.8
20220626230203 100 148 1.7 7.8 0.00 0.00 0.00 14 1012.8
20220626230142 100 211 1.7 7.8 0.00 0.00 0.00 14 1012.8
20220626230042 100 207 2.6 7.8 0.00 0.00 0.00 14 1012.8
20220626225942 100 200 2.6 7.8 0.00 0.00 0.00 15 1012.8
20220626225842 100 197 2.6 7.8 0.00 0.00 0.00 14 1012.8
20220626225738 100 231 2.6 7.8 0.00 0.00 0.00 15 1012.8
20220626225658 99 262 3.5 7.8 0.00 0.00 0.00 16 1012.8
20220626225638 99 226 3.5 7.8 0.00 0.00 0.00 16 1012.8
20220626225538 99 311 3.5 7.8 0.00 0.00 0.00 16 1012.8
20220626225438 99 264 3.5 7.8 0.00 0.00 0.00 16 1012.8
20220626225337 99 208 3.5 7.8 0.00 0.00 0.00 15 1012.9
20220626225234 99 243 3.5 7.8 0.00 0.00 0.00 16 1012.9
20220626225152 99 247 3.5 7.8 0.00 0.00 0.00 15 1012.9
20220626225132 99 153 3.5 7.8 0.00 0.00 0.00 15 1012.9
20220626225032 99 193 3.5 7.8 0.00 0.00 0.00 16 1012.9
20220626224933 99 232 3.5 7.8 0.00 0.00 0.00 16 1012.9
20220626224829 99 194 2.6 7.8 0.00 0.00 0.00 16 1013.0
20220626224724 99 194 2.6 7.8 0.00 0.00 0.00 15 1012.9
20220626224645 99 222 2.6 7.8 0.00 0.00 0.00 16 1012.9
20220626224625 99 246 2.6 7.8 0.00 0.00 0.00 16 1012.9
20220626224524 99 262 2.6 7.8 0.00 0.00 0.00 16 1013.0
20220626224424 99 252 3.5 7.8 0.00 0.00 0.00 16 1013.0
20220626224325 99 224 3.5 7.8 0.00 0.00 0.00 16 1012.9
20220626224218 100 221 3.5 7.0 0.00 0.00 0.00 16 1013.0
20220626224139 100 245 3.5 7.0 0.00 0.00 0.00 16 1013.0
20220626224118 100 154 3.5 7.0 0.00 0.00 0.00 16 1013.0
20220626224019 100 224 3.5 7.0 0.00 0.00 0.00 17 1012.9
20220626223925 100 291 2.6 7.0 0.00 0.00 0.00 16 1013.0
20220626223818 100 217 2.6 7.0 0.00 0.00 0.00 16 1013.0
20220626223715 100 214 2.6 7.0 0.00 0.00 0.00 15 1013.0
20220626223634 100 274 2.6 7.0 0.00 0.00 0.00 15 1013.0
20220626223612 100 242 2.6 7.0 0.00 0.00 0.00 15 1013.0
20220626223512 100 245 1.7 7.0 0.00 0.00 0.00 16 1013.0
20220626223413 100 213 1.7 7.0 0.00 0.00 0.00 15 1013.0
20220626223312 101 249 1.7 7.0 0.00 0.00 0.00 14 1013.0
20220626223206 101 250 0.9 7.0 0.00 0.00 0.00 14 1013.0
20220626223127 101 277 0.9 7.0 0.00 0.00 0.00 15 1013.0
20220626223106 101 238 0.9 7.0 0.00 0.00 0.00 15 1013.0
20220626223006 101 191 0.9 5.2 0.00 0.00 0.00 15 1013.0
20220626222906 101 138 0.9 5.2 0.00 0.00 0.00 14 1013.0
20220626222806 101 221 0.9 5.2 0.00 0.00 0.00 15 1013.1
20220626222700 101 302 0.9 5.2 0.00 0.00 0.00 14 1013.1
20220626222622 101 231 0.9 5.2 0.00 0.00 0.00 16 1013.1
20220626222602 101 188 0.9 3.5 0.00 0.00 0.00 16 1013.1
20220626222502 101 314 0.9 3.5 0.00 0.00 0.00 16 1013.0
20220626222400 101 293 0.9 3.5 0.00 0.00 0.00 15 1013.1
20220626222301 100 248 1.7 5.2 0.00 0.00 0.00 15 1013.1
20220626222157 100 243 1.7 5.2 0.00 0.00 0.00 16 1013.1
20220626222115 100 240 1.7 7.0 0.00 0.00 0.00 16 1013.1
20220626222055 100 185 1.7 7.0 0.00 0.00 0.00 16 1013.1
20220626221954 100 257 1.7 7.0 0.00 0.00 0.00 17 1013.1
20220626221855 100 266 2.6 7.0 0.00 0.00 0.00 16 1013.1
20220626221754 100 197 1.7 7.0 0.00 0.00 0.00 15 1013.1
20220626221652 100 297 1.7 7.0 0.00 0.00 0.00 16 1013.1
20220626221610 100 233 1.7 7.0 0.00 0.00 0.00 16 1013.1
20220626221550 100 158 1.7 7.0 0.00 0.00 0.00 16 1013.1
20220626221450 100 179 1.7 7.0 0.00 0.00 0.00 17 1013.1
20220626221350 100 226 1.7 7.0 0.00 0.00 0.00 16 1013.2
20220626221248 100 210 1.7 7.0 0.00 0.00 0.00 17 1013.1
20220626221146 100 173 1.7 7.0 0.00 0.00 0.00 17 1013.1
20220626221104 100 214 1.7 6.1 0.00 0.00 0.00 17 1013.1
20220626221042 100 302 1.7 6.1 0.00 0.00 0.00 17 1013.1
20220626220943 100 239 1.7 6.1 0.00 0.00 0.00 17 1013.1
20220626220842 100 229 1.7 6.1 0.00 0.00 0.00 18 1013.1
20220626220742 100 248 1.7 6.1 0.00 0.00 0.00 18 1013.1
20220626220636 100 161 1.7 6.1 0.00 0.00 0.00 19 1013.1
20220626220612 100 267 1.7 6.1 0.00 0.00 0.00 19 1013.1
20220626220536 100 262 1.7 6.1 0.00 0.00 0.00 19 1013.1
20220626220436 99 316 1.7 6.1 0.00 0.00 0.00 19 1013.1
20220626220336 99 226 2.6 8.7 0.00 0.00 0.00 19 1013.1
20220626220236 99 193 1.7 8.7 0.00 0.00 0.00 19 1013.1
20220626220133 99 163 1.7 8.7 0.00 0.00 0.00 18 1013.1
20220626220105 99 200 1.7 8.7 0.00 0.00 0.00 20 1013.1
20220626220031 99 221 1.7 8.7 0.00 0.00 0.00 20 1013.1
20220626215930 99 246 2.6 8.7 0.00 0.00 0.00 20 1013.2
20220626215830 99 197 2.6 8.7 0.00 0.00 0.00 19 1013.1
20220626215730 99 256 2.6 8.7 0.00 0.00 0.00 20 1013.1
20220626215624 99 309 2.6 8.7 0.00 0.00 0.00 20 1013.1
20220626215546 99 263 2.6 8.7 0.00 0.00 0.00 19 1013.2
20220626215524 99 242 2.6 8.7 0.00 0.00 0.00 19 1013.2
20220626215424 99 131 2.6 8.7 0.00 0.00 0.00 19 1013.2
20220626215324 99 250 1.7 7.8 0.00 0.00 0.00 19 1013.2
20220626215224 99 143 1.7 7.8 0.00 0.00 0.00 20 1013.2
20220626215122 99 255 1.7 7.8 0.00 0.00 0.00 19 1013.2
20220626215040 99 212 1.7 7.8 0.00 0.00 0.00 19 1013.3
20220626215020 99 235 1.7 7.8 0.00 0.00 0.00 19 1013.3
20220626214920 100 235 1.7 7.8 0.00 0.00 0.00 19 1013.2
20220626214821 100 186 0.9 5.2 0.00 0.00 0.00 19 1013.2
20220626214719 100 150 0.9 4.3 0.00 0.00 0.00 20 1013.2
20220626214614 100 150 1.7 4.3 0.00 0.00 0.00 20 1013.2
20220626214548 100 290 1.7 4.3 0.00 0.00 0.00 19 1013.3
20220626214512 100 269 1.7 4.3 0.00 0.00 0.00 19 1013.3
20220626214412 100 215 1.7 4.3 0.00 0.00 0.00 20 1013.3
20220626214214 99 239 1.7 4.3 0.00 0.00 0.00 20 1013.3
20220626214108 99 300 1.7 4.3 0.00 0.00 0.00 19 1013.3
20220626214039 99 255 1.7 4.3 0.00 0.00 0.00 19 1013.3
20220626214006 99 221 1.7 4.3 0.00 0.00 0.00 19 1013.3
20220626213907 99 264 1.7 4.3 0.00 0.00 0.00 20 1013.4
20220626213806 99 208 1.7 4.3 0.00 0.00 0.00 19 1013.3
20220626213705 99 254 1.7 4.3 0.00 0.00 0.00 19 1013.4
20220626213602 99 167 1.7 4.3 0.00 0.00 0.00 18 1013.4
20220626213535 100 219 1.7 4.3 0.00 0.00 0.00 18 1013.4
20220626213502 100 239 0.9 4.3 0.00 0.00 0.00 18 1013.4
20220626213400 99 168 0.9 4.3 0.00 0.00 0.00 19 1013.4
20220626213300 99 270 0.9 4.3 0.00 0.00 0.00 19 1013.4
20220626213200 99 267 0.9 4.3 0.00 0.00 0.00 19 1013.4
20220626213055 99 311 1.7 6.1 0.00 0.00 0.00 20 1013.4
20220626213028 99 276 1.7 6.1 0.00 0.00 0.00 20 1013.4
20220626212954 99 256 1.7 6.1 0.00 0.00 0.00 20 1013.4
20220626212855 99 180 1.7 6.1 0.00 0.00 0.00 19 1013.4
20220626212754 99 276 1.7 6.1 0.00 0.00 0.00 19 1013.4
20220626212655 99 217 1.7 6.1 0.00 0.00 0.00 19 1013.4
20220626212553 99 256 1.7 6.1 0.00 0.00 0.00 19 1013.4
20220626212522 99 266 1.7 6.1 0.00 0.00 0.00 19 1013.4
20220626212450 99 266 1.7 6.1 0.00 0.00 0.00 19 1013.4
20220626212350 99 235 1.7 6.1 0.00 0.00 0.00 19 1013.4
20220626212251 98 302 1.7 6.1 0.00 0.00 0.00 19 1013.4
20220626212148 98 222 2.6 6.1 0.00 0.00 0.00 18 1013.5
20220626212042 98 172 2.6 6.1 0.00 0.00 0.00 18 1013.5
20220626212016 98 252 2.6 6.1 0.00 0.00 0.00 18 1013.5
20220626211942 98 212 2.6 6.1 0.00 0.00 0.00 18 1013.5
20220626211842 98 228 2.6 6.1 0.00 0.00 0.00 18 1013.5
20220626211742 98 204 2.6 6.1 0.00 0.00 0.00 19 1013.5
20220626211642 98 193 2.6 6.1 0.00 0.00 0.00 19 1013.5
20220626211539 97 273 3.5 7.0 0.00 0.00 0.00 19 1013.4
20220626211512 97 217 3.5 7.0 0.00 0.00 0.00 19 1013.5
20220626211436 97 193 3.5 7.0 0.00 0.00 0.00 21 1013.5
20220626211336 97 214 2.6 7.0 0.00 0.00 0.00 19 1013.5
20220626211237 97 170 2.6 7.0 0.00 0.00 0.00 19 1013.5
20220626211137 98 153 2.6 7.0 0.00 0.00 0.00 18 1013.5
20220626211034 98 184 2.6 7.0 0.00 0.00 0.00 18 1013.5
20220626211005 98 238 1.7 7.0 0.00 0.00 0.00 18 1013.5
20220626210929 98 238 1.7 7.0 0.00 0.00 0.00 19 1013.5
20220626210831 98 225 1.7 7.0 0.00 0.00 0.00 20 1013.5
20220626210730 98 142 1.7 7.0 0.00 0.00 0.00 20 1013.5
20220626210630 98 242 1.7 7.0 0.00 0.00 0.00 19 1013.5
20220626210524 98 264 1.7 5.2 0.00 0.00 0.00 20 1013.5
20220626210445 98 247 1.7 5.2 0.00 0.00 0.00 20 1013.5
20220626210424 98 210 1.7 5.2 0.00 0.00 0.00 21 1013.5
20220626210324 98 204 1.7 5.2 0.00 0.00 0.00 21 1013.5
20220626210224 98 195 1.7 6.1 0.00 0.00 0.00 21 1013.5
20220626210124 98 194 1.7 6.1 0.00 0.00 0.00 20 1013.5
20220626210024 98 217 2.6 6.1 0.00 0.00 0.00 22 1013.5
20220626205939 98 143 2.6 6.1 0.00 0.00 0.00 22 1013.5
20220626205922 98 179 2.6 6.1 0.00 0.00 0.00 21 1013.5
20220626205822 98 210 2.6 6.1 0.00 0.00 0.00 22 1013.5
20220626205720 98 205 2.6 6.1 0.00 0.00 0.00 22 1013.5
20220626205618 98 217 1.7 6.1 0.00 0.00 0.00 22 1013.5
20220626205512 98 214 1.7 6.1 0.00 0.00 0.00 22 1013.5
20220626205433 98 217 1.7 6.1 0.00 0.00 0.00 22 1013.5
20220626205412 98 283 1.7 6.1 0.00 0.00 0.00 22 1013.5
20220626205312 98 253 1.7 6.1 0.00 0.00 0.00 23 1013.5
20220626205215 99 136 1.7 5.2 0.00 0.00 0.00 22 1013.5
20220626205112 99 219 0.9 5.2 0.00 0.00 0.00 23 1013.6
20220626205009 99 182 0.9 5.2 0.00 0.00 0.00 23 1013.6
20220626204928 99 221 0.9 5.2 0.00 0.00 0.00 23 1013.6
20220626204909 100 212 0.9 5.2 0.00 0.00 0.00 24 1013.6
20220626204808 99 269 0.9 3.5 0.00 0.00 0.00 25 1013.5
20220626204709 99 238 0.0 3.5 0.00 0.00 0.00 25 1013.6
20220626204606 99 266 0.9 3.5 0.00 0.00 0.00 26 1013.6
20220626204503 99 280 0.9 3.5 0.00 0.00 0.00 25 1013.6
20220626204434 99 134 0.9 3.5 0.00 0.00 0.00 25 1013.6
20220626204401 99 201 0.9 2.6 0.00 0.00 0.00 25 1013.6
20220626204300 99 332 0.9 1.7 0.00 0.00 0.00 25 1013.6
20220626204200 99 341 0.9 1.7 0.00 0.00 0.00 26 1013.6
20220626204059 98 222 0.9 1.7 0.00 0.00 0.00 25 1013.6